ACA897 LGAV-CYYZ

Flight info

Callsign ACA897
Flight time N/A
Altitude 32000
Route ATV2E ATV UM749 SKP UL617 TSL UM987 MICPO UL863 EVIVI L863 OKANA DCT TONDO DCT GOTAR DCT LIMRA DCT LAMSI L604 RUDNO DCT SULUS L604 OBISI/N0481F340 L604 BIGGE DCT RAVLO Y70 GOLES UL975 DESIG UL70 PENIL M144 BAGSO DCT ERNAN DCT NIBOG DCT ETARI/M084F340 DCT 56N020W 57N030W 57N040W 57N050W DCT HOIST/N0485F340 N750B YBC/N0477F360 Q910 IMORI Q921 AGLUK Q941 TAMKO Q852 KANUR Q806 TUKIR DCT TADMO IMEBA9
Aircraft B77W/H-SDE1E2E3FGHIJ2J3J4J5M1RWXY/LB1D1

Departure

Time 2026-05-05 12:04
Airport Athens Eleftherios Venizelos International Airport (LGAV)

Arrival

Time N/A
Airport Toronto Pearson International Airport (CYYZ)
Time Latitude Longitude Altitude Speed Heading
2026-05-05 11:31 37.93512 23.94747 317 ft 0 kts 306°
2026-05-05 11:54 37.93500 23.94770 311 ft 4 kts 298°
2026-05-05 11:54 37.93489 23.94801 305 ft 4 kts 285°
2026-05-05 11:54 37.93485 23.94833 303 ft 4 kts 261°
2026-05-05 11:55 37.93493 23.94858 306 ft 1 kts 217°
2026-05-05 11:55 37.93494 23.94858 305 ft 0 kts 217°
2026-05-05 11:58 37.93493 23.94858 306 ft 1 kts 217°
2026-05-05 11:58 37.93448 23.94865 307 ft 10 kts 133°
2026-05-05 11:58 37.93409 23.94938 308 ft 10 kts 122°
2026-05-05 11:58 37.93354 23.94983 304 ft 10 kts 187°
2026-05-05 11:59 37.93291 23.94940 307 ft 10 kts 213°
2026-05-05 11:59 37.93232 23.94886 307 ft 10 kts 217°
2026-05-05 11:59 37.93175 23.94829 306 ft 10 kts 217°
2026-05-05 11:59 37.93117 23.94775 306 ft 10 kts 216°
2026-05-05 12:00 37.93057 23.94723 308 ft 10 kts 213°
2026-05-05 12:00 37.93003 23.94672 309 ft 10 kts 219°
2026-05-05 12:00 37.92947 23.94615 308 ft 10 kts 219°
2026-05-05 12:00 37.92890 23.94558 308 ft 10 kts 218°
2026-05-05 12:01 37.92831 23.94503 309 ft 10 kts 216°
2026-05-05 12:01 37.92773 23.94449 309 ft 10 kts 216°
2026-05-05 12:01 37.92714 23.94395 309 ft 10 kts 217°
2026-05-05 12:01 37.92656 23.94340 310 ft 10 kts 217°
2026-05-05 12:02 37.92598 23.94285 310 ft 10 kts 217°
2026-05-05 12:02 37.92540 23.94230 312 ft 10 kts 217°
2026-05-05 12:02 37.92483 23.94175 310 ft 10 kts 217°
2026-05-05 12:02 37.92422 23.94190 311 ft 10 kts 121°
2026-05-05 12:03 37.92413 23.94281 311 ft 10 kts 91°
2026-05-05 12:03 37.92414 23.94362 314 ft 11 kts 79°
2026-05-05 12:03 37.92475 23.94441 316 ft 21 kts 35°
2026-05-05 12:03 37.92704 23.94659 310 ft 71 kts 37°
2026-05-05 12:04 37.93270 23.95196 299 ft 134 kts 37°
2026-05-05 12:04 37.94168 23.96047 294 ft 185 kts 37°
2026-05-05 12:04 37.95268 23.97059 573 ft 194 kts 36°
2026-05-05 12:04 37.96343 23.97995 1167 ft 188 kts 35°
2026-05-05 12:05 37.97484 23.98738 1706 ft 186 kts
2026-05-05 12:05 37.98785 23.98530 1936 ft 195 kts 332°
2026-05-05 12:05 37.99764 23.97308 2098 ft 208 kts 296°
2026-05-05 12:05 38.00116 23.95460 2251 ft 228 kts 274°
2026-05-05 12:06 37.99807 23.93410 2487 ft 245 kts 250°
2026-05-05 12:06 37.99078 23.91387 2829 ft 256 kts 248°
2026-05-05 12:06 37.98601 23.89229 3234 ft 256 kts 269°
2026-05-05 12:06 37.98845 23.87037 3719 ft 257 kts 295°
2026-05-05 12:07 37.99758 23.85167 4307 ft 254 kts 313°
2026-05-05 12:07 38.01213 23.83947 4782 ft 256 kts 339°
2026-05-05 12:07 38.02911 23.83205 5235 ft 261 kts 339°
2026-05-05 12:07 38.04619 23.82414 5865 ft 261 kts 339°
2026-05-05 12:08 38.06325 23.81607 6454 ft 263 kts 339°
2026-05-05 12:08 38.08045 23.80784 7017 ft 266 kts 339°
2026-05-05 12:08 38.09776 23.79961 7560 ft 266 kts 342°
2026-05-05 12:08 38.11614 23.79516 8013 ft 271 kts 354°
2026-05-05 12:09 38.13311 23.79353 8518 ft 272 kts 356°
2026-05-05 12:09 38.14873 23.79244 9025 ft 273 kts 356°
2026-05-05 12:09 38.16751 23.79116 9563 ft 274 kts 356°
2026-05-05 12:09 38.18659 23.78975 10114 ft 276 kts 356°
2026-05-05 12:10 38.20591 23.78822 10420 ft 287 kts 356°
2026-05-05 12:10 38.22636 23.78650 10559 ft 305 kts 355°
2026-05-05 12:10 38.24821 23.78457 10713 ft 324 kts 355°
2026-05-05 12:10 38.27142 23.78243 10861 ft 344 kts 355°
2026-05-05 12:11 38.29553 23.78014 11201 ft 356 kts 355°
2026-05-05 12:11 38.32050 23.77773 11772 ft 363 kts 355°
2026-05-05 12:11 38.34586 23.77525 12516 ft 366 kts 355°
2026-05-05 12:11 38.37130 23.77273 13331 ft 369 kts 355°
2026-05-05 12:12 38.39567 23.77032 14053 ft 372 kts 355°
2026-05-05 12:12 38.42252 23.76763 14748 ft 375 kts 355°
2026-05-05 12:12 38.44862 23.76502 15453 ft 378 kts 355°
2026-05-05 12:12 38.47491 23.76238 16173 ft 380 kts 355°
2026-05-05 12:13 38.50137 23.75974 16882 ft 383 kts 354°
2026-05-05 12:13 38.52811 23.75706 17579 ft 386 kts 354°
2026-05-05 12:13 38.55501 23.75436 18272 ft 389 kts 354°
2026-05-05 12:13 38.58212 23.75163 18887 ft 391 kts 354°
2026-05-05 12:14 38.60016 23.74981 19302 ft 393 kts 354°
2026-05-05 12:14 38.63637 23.74617 20091 ft 395 kts 354°
2026-05-05 12:14 38.66385 23.74339 20613 ft 397 kts 354°
2026-05-05 12:14 38.69150 23.74058 21160 ft 400 kts 354°
2026-05-05 12:15 38.71933 23.73778 21775 ft 403 kts 353°
2026-05-05 12:15 38.74728 23.73494 22402 ft 404 kts 353°
2026-05-05 12:15 38.76629 23.73303 22789 ft 405 kts 353°
2026-05-05 12:15 38.79415 23.73022 23335 ft 408 kts 353°
2026-05-05 12:16 38.82254 23.72735 23838 ft 411 kts 353°
2026-05-05 12:16 38.85116 23.72445 24260 ft 413 kts 353°
2026-05-05 12:16 38.87992 23.72154 24678 ft 416 kts 353°
2026-05-05 12:16 38.90895 23.71859 25086 ft 419 kts 353°
2026-05-05 12:17 38.93819 23.71562 25509 ft 421 kts 353°
2026-05-05 12:17 38.96744 23.71264 25920 ft 423 kts 353°
2026-05-05 12:17 38.99692 23.70965 26327 ft 426 kts 353°
2026-05-05 12:17 39.02644 23.70664 26711 ft 428 kts 353°
2026-05-05 12:18 39.05617 23.70361 27096 ft 430 kts 353°
2026-05-05 12:18 39.08610 23.70056 27463 ft 433 kts 353°
2026-05-05 12:18 39.11621 23.69749 27860 ft 435 kts 353°
2026-05-05 12:18 39.14635 23.69441 28229 ft 436 kts 353°
2026-05-05 12:19 39.17667 23.69131 28547 ft 439 kts 353°
2026-05-05 12:19 39.20667 23.68823 28856 ft 441 kts 353°
2026-05-05 12:19 39.23740 23.68509 29175 ft 443 kts 353°
2026-05-05 12:19 39.26820 23.68193 29479 ft 445 kts 353°
2026-05-05 12:20 39.29912 23.67876 29767 ft 447 kts 353°
2026-05-05 12:20 39.33020 23.67557 30094 ft 447 kts 353°
2026-05-05 12:20 39.36112 23.67240 30442 ft 446 kts 353°
2026-05-05 12:20 39.39201 23.66923 30806 ft 444 kts 353°
2026-05-05 12:21 39.42259 23.66609 31137 ft 443 kts 353°
2026-05-05 12:21 39.45336 23.66293 31447 ft 442 kts 353°
2026-05-05 12:21 39.48396 23.65977 31743 ft 441 kts 353°
2026-05-05 12:21 39.51455 23.65661 32011 ft 442 kts 353°
2026-05-05 12:22 39.57614 23.65022 32079 ft 448 kts 353°
2026-05-05 12:22 39.63852 23.64376 32073 ft 449 kts 353°
2026-05-05 12:23 39.70073 23.63731 32065 ft 448 kts 353°
2026-05-05 12:23 39.76245 23.63090 32065 ft 448 kts 353°
2026-05-05 12:24 39.82451 23.62444 32067 ft 447 kts 353°
2026-05-05 12:24 39.88663 23.61796 32071 ft 447 kts 353°
2026-05-05 12:25 39.94869 23.61148 32077 ft 447 kts 353°
2026-05-05 12:25 40.01064 23.60499 32055 ft 448 kts 353°
2026-05-05 12:26 40.07291 23.59846 32069 ft 448 kts 353°
2026-05-05 12:26 40.13514 23.59192 32055 ft 449 kts 353°
2026-05-05 12:27 40.19700 23.58541 32055 ft 449 kts 353°
2026-05-05 12:27 40.25921 23.57885 32059 ft 449 kts 353°
2026-05-05 12:28 40.32160 23.57227 32046 ft 450 kts 353°
2026-05-05 12:28 40.38394 23.56566 32050 ft 449 kts 353°
2026-05-05 12:29 40.44624 23.55905 32054 ft 449 kts 353°
2026-05-05 12:29 40.50854 23.55245 32065 ft 449 kts 353°
2026-05-05 12:30 40.57091 23.54580 32056 ft 449 kts 353°
2026-05-05 12:30 40.63332 23.53913 32053 ft 449 kts 353°
2026-05-05 12:31 40.69524 23.53252 32040 ft 449 kts 353°
2026-05-05 12:31 40.75750 23.52586 32047 ft 448 kts 353°
2026-05-05 12:32 40.81977 23.51917 32034 ft 449 kts 353°
2026-05-05 12:32 40.88208 23.51247 32034 ft 449 kts 353°
2026-05-05 12:33 40.94453 23.50576 32028 ft 450 kts 353°
2026-05-05 12:33 41.00697 23.49903 32027 ft 450 kts 353°
2026-05-05 12:34 41.06938 23.49228 32025 ft 451 kts 353°
2026-05-05 12:34 41.13195 23.48550 32022 ft 451 kts 353°
2026-05-05 12:35 41.19416 23.47876 32029 ft 452 kts 353°
2026-05-05 12:35 41.25692 23.47193 32034 ft 452 kts 353°
2026-05-05 12:36 41.31969 23.46510 32021 ft 453 kts 353°
2026-05-05 12:36 41.38199 23.45498 32037 ft 450 kts 346°
2026-05-05 12:37 41.44164 23.43067 32042 ft 449 kts 338°
2026-05-05 12:37 41.49806 23.39514 32033 ft 448 kts 333°
2026-05-05 12:38 41.55393 23.35804 32050 ft 449 kts 333°
2026-05-05 12:38 41.60963 23.32125 32057 ft 450 kts 333°
2026-05-05 12:39 41.66588 23.28431 32052 ft 451 kts 334°
2026-05-05 12:39 41.72223 23.24732 32054 ft 451 kts 333°
2026-05-05 12:40 41.77859 23.21024 32059 ft 451 kts 333°
2026-05-05 12:40 41.83488 23.17313 32065 ft 451 kts 334°
2026-05-05 12:41 41.89116 23.13595 32064 ft 451 kts 334°
2026-05-05 12:41 41.94702 23.09897 32045 ft 451 kts 333°
2026-05-05 12:42 42.00326 23.06166 32050 ft 451 kts 333°
2026-05-05 12:42 42.05963 23.02420 32066 ft 452 kts 333°
2026-05-05 12:43 42.11606 22.98662 32060 ft 453 kts 333°
2026-05-05 12:43 42.17263 22.94887 32060 ft 453 kts 333°
2026-05-05 12:44 42.22923 22.91102 32062 ft 454 kts 333°
2026-05-05 12:44 42.28587 22.87308 32061 ft 455 kts 333°
2026-05-05 12:45 42.34224 22.83521 32063 ft 455 kts 333°
2026-05-05 12:45 42.39889 22.79705 32060 ft 455 kts 333°
2026-05-05 12:46 42.45553 22.75881 32050 ft 455 kts 333°
2026-05-05 12:46 42.51225 22.72045 32054 ft 455 kts 333°
2026-05-05 12:47 42.56892 22.68204 32089 ft 456 kts 333°
2026-05-05 12:47 42.62580 22.64342 32089 ft 457 kts 333°
2026-05-05 12:48 42.68238 22.60490 32067 ft 458 kts 333°
2026-05-05 12:48 42.73942 22.56597 32074 ft 458 kts 333°
2026-05-05 12:49 42.79639 22.52701 32071 ft 458 kts 333°
2026-05-05 12:49 42.85260 22.48730 32071 ft 458 kts 329°
2026-05-05 12:50 42.90567 22.43919 32068 ft 458 kts 326°
2026-05-05 12:50 42.95834 22.39022 32066 ft 459 kts 326°
2026-05-05 12:51 43.01115 22.34130 32078 ft 459 kts 326°
2026-05-05 12:51 43.06424 22.29224 32066 ft 460 kts 326°
2026-05-05 12:52 43.11720 22.24325 32033 ft 460 kts 326°
2026-05-05 12:52 43.17017 22.19414 32052 ft 460 kts 326°
2026-05-05 12:53 43.22329 22.14480 32030 ft 462 kts 326°
2026-05-05 12:53 43.27628 22.09547 32014 ft 463 kts 326°
2026-05-05 12:54 43.35619 22.02087 32010 ft 463 kts 326°
2026-05-05 12:55 43.40934 21.97112 32030 ft 463 kts 326°
2026-05-05 12:55 43.46261 21.92114 32041 ft 464 kts 326°
2026-05-05 12:56 43.51595 21.87099 32039 ft 464 kts 326°
2026-05-05 12:56 43.56931 21.82072 32042 ft 464 kts 326°
2026-05-05 12:57 43.62266 21.77033 32051 ft 464 kts 325°
2026-05-05 12:57 43.67595 21.71990 32038 ft 464 kts 326°
2026-05-05 12:58 43.72891 21.66967 32021 ft 464 kts 325°
2026-05-05 12:58 43.78224 21.61899 32021 ft 465 kts 325°
2026-05-05 12:59 43.83562 21.56814 32021 ft 466 kts 325°
2026-05-05 12:59 43.88900 21.51718 32016 ft 466 kts 325°
2026-05-05 13:00 43.96873 21.44084 32029 ft 467 kts 325°
2026-05-05 13:01 44.07580 21.33794 32030 ft 468 kts 325°
2026-05-05 13:01 44.12903 21.28660 32023 ft 468 kts 325°
2026-05-05 13:02 44.18262 21.23483 32003 ft 469 kts 324°
2026-05-05 13:02 44.23583 21.18328 32013 ft 469 kts 324°
2026-05-05 13:03 44.28945 21.13122 32020 ft 469 kts 324°
2026-05-05 13:03 44.34305 21.07907 32020 ft 470 kts 324°
2026-05-05 13:04 44.39660 21.02684 31995 ft 470 kts 324°
2026-05-05 13:04 44.44161 20.98284 32015 ft 471 kts 324°
2026-05-05 13:05 44.49497 20.93059 32006 ft 472 kts 324°
2026-05-05 13:05 44.54873 20.87782 32011 ft 472 kts 324°
2026-05-05 13:06 44.60258 20.82484 31992 ft 473 kts 324°
2026-05-05 13:06 44.65642 20.77175 32014 ft 473 kts 324°
2026-05-05 13:07 44.71036 20.71843 32010 ft 474 kts 324°
2026-05-05 13:07 44.76438 20.66491 32006 ft 474 kts 324°
2026-05-05 13:08 44.81796 20.61171 32003 ft 475 kts 324°
2026-05-05 13:08 44.87196 20.55797 31983 ft 475 kts 324°
2026-05-05 13:09 44.92597 20.50408 31999 ft 476 kts 324°
2026-05-05 13:09 44.98001 20.45002 32004 ft 477 kts 323°
2026-05-05 13:10 45.03420 20.39571 31990 ft 477 kts 323°
2026-05-05 13:10 45.08840 20.34125 31999 ft 478 kts 323°
2026-05-05 13:11 45.14257 20.28671 32000 ft 478 kts 323°
2026-05-05 13:11 45.19677 20.23198 32003 ft 479 kts 323°
2026-05-05 13:12 45.25072 20.17739 31999 ft 479 kts 323°
2026-05-05 13:12 45.30499 20.12233 31998 ft 480 kts 323°
2026-05-05 13:13 45.35931 20.06710 31981 ft 480 kts 323°
2026-05-05 13:13 45.41366 20.01169 31974 ft 481 kts 323°
2026-05-05 13:14 45.46807 19.95610 31995 ft 481 kts 323°
2026-05-05 13:14 45.52252 19.90033 31992 ft 482 kts 323°
2026-05-05 13:15 45.57700 19.84440 31975 ft 482 kts 323°
2026-05-05 13:15 45.63136 19.78844 31971 ft 482 kts 323°
2026-05-05 13:16 45.68574 19.73232 31970 ft 482 kts 323°
2026-05-05 13:16 45.74012 19.67609 31978 ft 483 kts 323°
2026-05-05 13:17 45.79429 19.61991 31968 ft 484 kts 322°
2026-05-05 13:17 45.84880 19.56327 31971 ft 484 kts 322°
2026-05-05 13:18 45.90336 19.50638 31972 ft 484 kts 322°
2026-05-05 13:18 45.95788 19.44944 31972 ft 484 kts 322°
2026-05-05 13:19 46.01201 19.39209 31971 ft 484 kts 319°
2026-05-05 13:19 46.05650 19.32044 31982 ft 480 kts 302°
2026-05-05 13:20 46.08718 19.23537 31973 ft 479 kts 293°
2026-05-05 13:20 46.11449 19.14779 31974 ft 479 kts 293°
2026-05-05 13:21 46.14200 19.06023 31967 ft 480 kts 293°
2026-05-05 13:21 46.16970 18.97289 31975 ft 478 kts 294°
2026-05-05 13:22 46.19721 18.88633 31964 ft 476 kts 294°
2026-05-05 13:22 46.22471 18.79959 31960 ft 474 kts 294°
2026-05-05 13:23 46.25202 18.71302 31972 ft 473 kts 293°
2026-05-05 13:23 46.27932 18.62626 31972 ft 475 kts 293°
2026-05-05 13:24 46.30660 18.53910 31964 ft 476 kts 293°
2026-05-05 13:24 46.33391 18.45162 31957 ft 477 kts 293°
2026-05-05 13:25 46.36112 18.36419 31960 ft 477 kts 293°
2026-05-05 13:25 46.38814 18.27710 31967 ft 476 kts 293°
2026-05-05 13:26 46.41511 18.18981 31960 ft 473 kts 293°
2026-05-05 13:26 46.44191 18.10279 31957 ft 471 kts 293°
2026-05-05 13:27 46.46849 18.01621 31954 ft 469 kts 293°
2026-05-05 13:27 46.49495 17.92970 31965 ft 468 kts 292°
2026-05-05 13:28 46.52114 17.84380 31958 ft 468 kts 292°
2026-05-05 13:28 46.54739 17.75738 31953 ft 468 kts 292°
2026-05-05 13:29 46.57361 17.67074 31952 ft 468 kts 292°
2026-05-05 13:29 46.59981 17.58390 31954 ft 468 kts 292°
2026-05-05 13:30 46.62595 17.49697 31944 ft 469 kts 292°
2026-05-05 13:30 46.65198 17.41008 31945 ft 469 kts 292°
2026-05-05 13:31 46.67797 17.32303 31940 ft 468 kts 292°
2026-05-05 13:31 46.70390 17.23587 31946 ft 468 kts 291°
2026-05-05 13:32 46.72974 17.14870 31931 ft 468 kts 291°
2026-05-05 13:32 46.75546 17.06161 31945 ft 467 kts 291°
2026-05-05 13:33 46.78107 16.97466 31944 ft 467 kts 291°
2026-05-05 13:33 46.80649 16.88799 31922 ft 467 kts 291°
2026-05-05 13:34 46.83202 16.80062 31921 ft 468 kts 291°
2026-05-05 13:34 46.85755 16.71299 31931 ft 469 kts 290°
2026-05-05 13:35 46.88303 16.62519 31914 ft 470 kts 290°
2026-05-05 13:35 46.90848 16.53717 31909 ft 470 kts 290°
2026-05-05 13:36 46.93389 16.44900 31908 ft 471 kts 290°
2026-05-05 13:36 46.95911 16.36113 31905 ft 472 kts 290°
2026-05-05 13:37 46.98454 16.27263 31905 ft 472 kts 291°
2026-05-05 13:37 47.01675 16.18856 31891 ft 476 kts 301°
2026-05-05 13:38 47.05719 16.11161 31891 ft 476 kts 305°
2026-05-05 13:38 47.09818 16.03515 31884 ft 476 kts 305°
2026-05-05 13:39 47.13877 15.95837 31875 ft 476 kts 304°
2026-05-05 13:39 47.17912 15.88157 31872 ft 476 kts 305°
2026-05-05 13:40 47.21950 15.80429 31867 ft 476 kts 305°
2026-05-05 13:40 47.25987 15.72684 31864 ft 477 kts 304°
2026-05-05 13:41 47.30018 15.64951 31851 ft 479 kts 304°
2026-05-05 13:41 47.34058 15.57165 31862 ft 478 kts 304°
2026-05-05 13:42 47.38102 15.49361 31857 ft 480 kts 304°
2026-05-05 13:42 47.42154 15.41498 31862 ft 482 kts 304°
2026-05-05 13:43 47.46213 15.33603 31856 ft 482 kts 304°
2026-05-05 13:43 47.50256 15.25722 31855 ft 482 kts 304°
2026-05-05 13:44 47.54295 15.17831 31850 ft 481 kts 304°
2026-05-05 13:44 47.58325 15.09933 31849 ft 480 kts 304°
2026-05-05 13:45 47.62344 15.02016 31838 ft 480 kts 303°
2026-05-05 13:45 47.66334 14.94146 31820 ft 480 kts 303°
2026-05-05 13:46 47.70341 14.86237 31816 ft 478 kts 304°
2026-05-05 13:46 47.74335 14.78314 31808 ft 480 kts 304°
2026-05-05 13:47 47.78336 14.70353 31808 ft 481 kts 304°
2026-05-05 13:47 47.82342 14.62357 31778 ft 482 kts 304°
2026-05-05 13:48 47.86349 14.54343 31790 ft 483 kts 304°
2026-05-05 13:48 47.90456 14.46475 31769 ft 486 kts 309°
2026-05-05 13:49 47.95441 14.39613 31769 ft 491 kts 320°
2026-05-05 13:49 48.00890 14.33448 31768 ft 491 kts 320°
2026-05-05 13:50 48.06338 14.27278 31776 ft 491 kts 320°
2026-05-05 13:50 48.11760 14.21049 31773 ft 491 kts 319°
2026-05-05 13:51 48.16258 14.15844 31777 ft 492 kts 319°
2026-05-05 13:51 48.21675 14.09554 31782 ft 493 kts 319°
2026-05-05 13:52 48.27099 14.03243 31782 ft 492 kts 319°
2026-05-05 13:52 48.32498 13.96944 31770 ft 492 kts 319°
2026-05-05 13:53 48.37902 13.90625 31773 ft 491 kts 319°
2026-05-05 13:53 48.43260 13.84338 31788 ft 493 kts 319°
2026-05-05 13:54 48.48649 13.78001 31782 ft 494 kts 319°
2026-05-05 13:54 48.54067 13.71611 31768 ft 494 kts 319°
2026-05-05 13:55 48.59466 13.65225 31765 ft 493 kts 319°
2026-05-05 13:55 48.64849 13.58825 31772 ft 491 kts 317°
2026-05-05 13:56 48.69795 13.51757 31775 ft 489 kts 311°
2026-05-05 13:56 48.74601 13.44422 31781 ft 490 kts 311°
2026-05-05 13:57 48.79396 13.37173 31744 ft 490 kts 312°
2026-05-05 13:57 48.84238 13.29886 31746 ft 490 kts 312°
2026-05-05 13:58 48.89052 13.22615 31783 ft 489 kts 311°
2026-05-05 13:58 48.93876 13.15291 31782 ft 490 kts 311°
2026-05-05 13:59 49.01117 13.04249 31769 ft 492 kts 311°
2026-05-05 14:00 49.08361 12.93160 31756 ft 491 kts 311°
2026-05-05 14:00 49.13174 12.85765 31758 ft 491 kts 311°
2026-05-05 14:01 49.17982 12.78355 31755 ft 490 kts 311°
2026-05-05 14:01 49.22770 12.70946 31758 ft 489 kts 311°
2026-05-05 14:02 49.27554 12.63519 31759 ft 489 kts 311°
2026-05-05 14:02 49.32308 12.56075 31755 ft 488 kts 309°
2026-05-05 14:03 49.36363 12.47849 31761 ft 481 kts 298°
2026-05-05 14:03 49.39924 12.39224 31761 ft 482 kts 298°
2026-05-05 14:04 49.43514 12.30527 31758 ft 483 kts 298°
2026-05-05 14:04 49.47134 12.21819 31761 ft 483 kts 298°
2026-05-05 14:05 49.50768 12.13090 31775 ft 484 kts 298°
2026-05-05 14:05 49.54397 12.04351 31762 ft 485 kts 298°
2026-05-05 14:06 49.58021 11.95586 31780 ft 485 kts 298°
2026-05-05 14:06 49.61640 11.86803 31768 ft 485 kts 298°
2026-05-05 14:07 49.65244 11.78034 31769 ft 483 kts 298°
2026-05-05 14:07 49.68815 11.69311 31777 ft 484 kts 298°
2026-05-05 14:08 49.72406 11.60509 31776 ft 485 kts 297°
2026-05-05 14:08 49.75997 11.51676 31772 ft 485 kts 297°
2026-05-05 14:09 49.79581 11.42832 31781 ft 486 kts 297°
2026-05-05 14:09 49.83169 11.33949 31788 ft 486 kts 297°
2026-05-05 14:10 49.86755 11.25041 31785 ft 487 kts 297°
2026-05-05 14:10 49.90335 11.16117 31790 ft 487 kts 297°
2026-05-05 14:11 49.93909 11.07180 31798 ft 486 kts 297°
2026-05-05 14:11 49.97467 10.98250 31787 ft 486 kts 297°
2026-05-05 14:12 50.00998 10.89357 31791 ft 487 kts 297°
2026-05-05 14:12 50.04534 10.80424 31794 ft 487 kts 297°
2026-05-05 14:13 50.08301 10.71625 31794 ft 492 kts 304°
2026-05-05 14:13 50.13025 10.63809 31820 ft 497 kts 310°
2026-05-05 14:14 50.17840 10.56059 31822 ft 497 kts 308°
2026-05-05 14:14 50.22499 10.48251 31812 ft 495 kts 308°
2026-05-05 14:15 50.27344 10.40433 31804 ft 494 kts 310°
2026-05-05 14:15 50.32136 10.32835 31805 ft 493 kts 309°
2026-05-05 14:16 50.36772 10.25013 31814 ft 487 kts 304°
2026-05-05 14:16 50.41271 10.17009 31818 ft 495 kts 310°
2026-05-05 14:17 50.46162 10.09319 31823 ft 496 kts 308°
2026-05-05 14:17 50.50777 10.01331 31803 ft 492 kts 307°
2026-05-05 14:18 50.55357 9.93402 31823 ft 488 kts 306°
2026-05-05 14:18 50.59683 9.85194 31820 ft 487 kts 304°
2026-05-05 14:19 50.63970 9.76909 31822 ft 488 kts 304°
2026-05-05 14:19 50.68278 9.68710 31816 ft 490 kts 304°
2026-05-05 14:20 50.70445 9.64541 31931 ft 492 kts 304°
2026-05-05 14:20 50.72609 9.60369 32249 ft 490 kts 304°
2026-05-05 14:20 50.74769 9.56217 32650 ft 488 kts 304°
2026-05-05 14:20 50.76925 9.52095 32975 ft 486 kts 304°
2026-05-05 14:21 50.79083 9.47975 33235 ft 486 kts 304°
2026-05-05 14:21 50.81240 9.43849 33467 ft 486 kts 304°
2026-05-05 14:21 50.83414 9.39682 33741 ft 485 kts 304°
2026-05-05 14:21 50.85537 9.35602 33780 ft 487 kts 304°
2026-05-05 14:22 50.89838 9.27310 33821 ft 487 kts 304°
2026-05-05 14:22 50.94097 9.19074 33820 ft 485 kts 303°
2026-05-05 14:23 50.98361 9.10805 33830 ft 483 kts 303°
2026-05-05 14:23 51.02602 9.02545 33823 ft 482 kts 303°
2026-05-05 14:24 51.06837 8.94273 33826 ft 481 kts 303°
2026-05-05 14:24 51.11059 8.86004 33815 ft 481 kts 303°
2026-05-05 14:25 51.15274 8.77719 33823 ft 482 kts 303°
2026-05-05 14:25 51.19478 8.69409 33817 ft 482 kts 303°
2026-05-05 14:26 51.23686 8.61065 33829 ft 483 kts 303°
2026-05-05 14:26 51.27905 8.52672 33830 ft 485 kts 303°
2026-05-05 14:27 51.32087 8.44215 33825 ft 482 kts 300°
2026-05-05 14:27 51.35436 8.35150 33835 ft 473 kts 292°
2026-05-05 14:28 51.38505 8.25754 33829 ft 473 kts 292°
2026-05-05 14:28 51.41541 8.16485 33846 ft 473 kts 292°
2026-05-05 14:29 51.44616 8.07150 33877 ft 474 kts 292°
2026-05-05 14:29 51.47705 7.97775 33842 ft 476 kts 292°
2026-05-05 14:30 51.50787 7.88391 33852 ft 474 kts 292°
2026-05-05 14:30 51.53849 7.79035 33857 ft 473 kts 291°
2026-05-05 14:31 51.56897 7.69676 33876 ft 472 kts 292°
2026-05-05 14:31 51.59939 7.60301 33866 ft 472 kts 292°
2026-05-05 14:32 51.62971 7.50921 33859 ft 472 kts 292°
2026-05-05 14:32 51.65996 7.41528 33871 ft 472 kts 292°
2026-05-05 14:33 51.69015 7.32119 33878 ft 472 kts 292°
2026-05-05 14:33 51.72008 7.22753 33873 ft 473 kts 292°
2026-05-05 14:34 51.75006 7.13340 33878 ft 471 kts 292°
2026-05-05 14:34 51.77992 7.03927 33886 ft 471 kts 292°
2026-05-05 14:35 51.80975 6.94485 33872 ft 471 kts 292°
2026-05-05 14:35 51.83939 6.85067 33878 ft 469 kts 292°
2026-05-05 14:36 51.86887 6.75661 33894 ft 469 kts 292°
2026-05-05 14:36 51.89838 6.66216 33885 ft 469 kts 292°
2026-05-05 14:37 51.92776 6.56772 33892 ft 469 kts 292°
2026-05-05 14:37 51.95693 6.47359 33891 ft 470 kts 292°
2026-05-05 14:38 51.98621 6.37872 33891 ft 470 kts 292°
2026-05-05 14:38 52.01058 6.29948 33897 ft 472 kts 291°
2026-05-05 14:39 52.03985 6.20397 33904 ft 473 kts 291°
2026-05-05 14:39 52.06915 6.10799 33914 ft 475 kts 291°
2026-05-05 14:40 52.09846 6.01159 33906 ft 475 kts 291°
2026-05-05 14:40 52.12769 5.91510 33915 ft 475 kts 291°
2026-05-05 14:41 52.15678 5.81868 33924 ft 474 kts 291°
2026-05-05 14:41 52.18550 5.72313 33904 ft 471 kts 291°
2026-05-05 14:42 52.21411 5.62753 33901 ft 468 kts 291°
2026-05-05 14:42 52.24231 5.53289 33896 ft 466 kts 290°
2026-05-05 14:43 52.27051 5.43789 33925 ft 465 kts 290°
2026-05-05 14:43 52.29868 5.34252 33928 ft 472 kts 290°
2026-05-05 14:44 52.32727 5.24538 33920 ft 475 kts 290°
2026-05-05 14:44 52.35593 5.14772 33925 ft 476 kts 290°
2026-05-05 14:45 52.38447 5.05006 33920 ft 475 kts 290°
2026-05-05 14:45 52.41281 4.95269 33919 ft 474 kts 291°
2026-05-05 14:46 52.44108 4.85509 33924 ft 473 kts 291°
2026-05-05 14:46 52.46921 4.75758 33910 ft 472 kts 291°
2026-05-05 14:47 52.49708 4.66058 33927 ft 472 kts 291°
2026-05-05 14:47 52.52495 4.56316 33935 ft 472 kts 291°
2026-05-05 14:48 52.55278 4.46552 33934 ft 472 kts 291°
2026-05-05 14:48 52.58051 4.36779 33940 ft 472 kts 291°
2026-05-05 14:49 52.60794 4.27069 33946 ft 472 kts 291°
2026-05-05 14:49 52.63552 4.17269 33947 ft 472 kts 290°
2026-05-05 14:50 52.66308 4.07436 33947 ft 472 kts 290°
2026-05-05 14:50 52.69054 3.97596 33972 ft 473 kts 291°
2026-05-05 14:51 52.71795 3.87732 33968 ft 473 kts 291°
2026-05-05 14:51 52.74508 3.77928 33961 ft 472 kts 291°
2026-05-05 14:52 52.77226 3.68061 33966 ft 471 kts 291°
2026-05-05 14:52 52.79931 3.58202 33965 ft 471 kts 291°
2026-05-05 14:53 52.82624 3.48344 33979 ft 470 kts 291°
2026-05-05 14:53 52.85309 3.38473 33971 ft 470 kts 291°
2026-05-05 14:54 52.87985 3.28594 33973 ft 469 kts 291°
2026-05-05 14:54 52.90645 3.18717 33976 ft 469 kts 290°
2026-05-05 14:55 52.92629 3.08500 33974 ft 464 kts 279°
2026-05-05 14:55 52.93955 2.98036 33989 ft 464 kts 279°
2026-05-05 14:56 52.95282 2.87628 33981 ft 465 kts 279°
2026-05-05 14:56 52.96638 2.77145 33984 ft 465 kts 279°
2026-05-05 14:57 52.97994 2.66659 33996 ft 465 kts 279°
2026-05-05 14:57 52.99343 2.56144 33987 ft 465 kts 279°
2026-05-05 14:58 53.00680 2.45632 33985 ft 466 kts 279°
2026-05-05 14:58 53.02012 2.35091 33987 ft 466 kts 279°
2026-05-05 14:59 53.03334 2.24538 33986 ft 466 kts 279°
2026-05-05 14:59 53.04647 2.13982 33989 ft 466 kts 279°
2026-05-05 15:00 53.05732 2.05202 33988 ft 466 kts 279°
2026-05-05 15:00 53.07242 1.92902 33989 ft 468 kts 279°
2026-05-05 15:01 53.08536 1.82285 33993 ft 468 kts 279°
2026-05-05 15:01 53.09821 1.71659 33990 ft 469 kts 279°
2026-05-05 15:02 53.11097 1.61012 33992 ft 469 kts 279°
2026-05-05 15:02 53.12366 1.50346 33991 ft 469 kts 279°
2026-05-05 15:03 53.13627 1.39653 33990 ft 470 kts 279°
2026-05-05 15:03 53.14871 1.29026 33995 ft 471 kts 279°
2026-05-05 15:04 53.16118 1.18281 33992 ft 472 kts 279°
2026-05-05 15:04 53.17352 1.07555 33992 ft 472 kts 279°
2026-05-05 15:05 53.19192 0.91397 33987 ft 474 kts 279°
2026-05-05 15:06 53.20411 0.80582 33993 ft 475 kts 279°
2026-05-05 15:06 53.21615 0.69805 33991 ft 476 kts 279°
2026-05-05 15:07 53.22818 0.58956 33994 ft 476 kts 279°
2026-05-05 15:07 53.24015 0.48071 33981 ft 476 kts 279°
2026-05-05 15:08 53.25198 0.37186 33991 ft 477 kts 279°
2026-05-05 15:08 53.26369 0.26232 33996 ft 480 kts 279°
2026-05-05 15:09 53.27539 0.15215 34000 ft 483 kts 279°
2026-05-05 15:09 53.28923 0.04234 33985 ft 485 kts 286°
2026-05-05 15:10 53.31444 -0.06244 34004 ft 487 kts 296°
2026-05-05 15:10 53.34492 -0.16405 33989 ft 488 kts 296°
2026-05-05 15:11 53.37492 -0.26610 34002 ft 488 kts 295°
2026-05-05 15:11 53.40447 -0.36836 33989 ft 487 kts 295°
2026-05-05 15:12 53.43373 -0.47000 33995 ft 486 kts 295°
2026-05-05 15:12 53.46199 -0.56839 34014 ft 484 kts 295°
2026-05-05 15:13 53.49096 -0.66998 34007 ft 484 kts 295°
2026-05-05 15:13 53.51989 -0.77186 34003 ft 483 kts 295°
2026-05-05 15:14 53.54875 -0.87355 34004 ft 484 kts 295°
2026-05-05 15:14 53.57758 -0.97509 33995 ft 484 kts 295°
2026-05-05 15:15 53.59965 -1.08126 33998 ft 481 kts 277°
2026-05-05 15:15 53.59907 -1.19263 33998 ft 479 kts 259°
2026-05-05 15:16 53.58687 -1.30279 33993 ft 480 kts 259°
2026-05-05 15:16 53.57691 -1.39951 34084 ft 479 kts 259°
2026-05-05 15:16 53.57201 -1.44859 33966 ft 482 kts 260°
2026-05-05 15:17 53.56663 -1.50426 34016 ft 481 kts 260°
2026-05-05 15:17 53.55557 -1.61496 34007 ft 479 kts 259°
2026-05-05 15:18 53.54430 -1.72528 34004 ft 477 kts 259°
2026-05-05 15:18 53.53311 -1.83497 33998 ft 475 kts 261°
2026-05-05 15:19 53.52922 -1.94586 33968 ft 475 kts 270°
2026-05-05 15:19 53.53141 -2.05544 30992 ft 423 kts 271°
2026-05-05 15:19 53.53370 -2.11606 28001 ft 525 kts 272°
2026-05-05 15:20 53.53658 -2.17477 28617 ft 490 kts 276°
2026-05-05 15:20 53.54154 -2.22931 28844 ft 469 kts 278°
2026-05-05 15:20 53.54677 -2.28329 29131 ft 468 kts 278°
2026-05-05 15:20 53.55131 -2.33753 29429 ft 468 kts 277°
2026-05-05 15:21 53.55557 -2.39151 29965 ft 463 kts 278°
2026-05-05 15:21 53.56100 -2.44454 30698 ft 453 kts 281°
2026-05-05 15:21 53.56869 -2.49542 31370 ft 446 kts 285°
2026-05-05 15:21 53.57517 -2.54586 31591 ft 441 kts 271°
2026-05-05 15:22 53.57286 -2.59704 31871 ft 434 kts 263°
2026-05-05 15:22 53.57195 -2.64774 32160 ft 435 kts 273°
2026-05-05 15:22 53.57505 -2.69838 32452 ft 436 kts 276°
2026-05-05 15:22 53.57876 -2.74907 32727 ft 437 kts 275°
2026-05-05 15:23 53.58221 -2.79952 32991 ft 437 kts 275°
2026-05-05 15:23 53.58529 -2.85016 33250 ft 437 kts 274°
2026-05-05 15:23 53.58806 -2.90118 33520 ft 437 kts 274°
2026-05-05 15:23 53.59059 -2.95230 33761 ft 438 kts 274°
2026-05-05 15:24 53.59297 -3.00344 33907 ft 441 kts 273°
2026-05-05 15:24 53.59753 -3.10675 34015 ft 450 kts 273°
2026-05-05 15:25 53.60214 -3.21195 34049 ft 459 kts 273°
2026-05-05 15:25 53.60681 -3.32029 34050 ft 468 kts 273°
2026-05-05 15:26 53.61072 -3.41249 34050 ft 473 kts 273°
2026-05-05 15:26 53.61529 -3.52254 34031 ft 474 kts 273°
2026-05-05 15:27 53.61978 -3.63332 34043 ft 473 kts 273°
2026-05-05 15:27 53.62416 -3.74371 34034 ft 471 kts 273°
2026-05-05 15:28 53.62842 -3.85385 34035 ft 469 kts 273°
2026-05-05 15:28 53.63256 -3.96349 34034 ft 468 kts 272°
2026-05-05 15:29 53.63659 -4.07271 34035 ft 467 kts 272°
2026-05-05 15:29 53.64051 -4.18180 34047 ft 466 kts 272°
2026-05-05 15:30 53.64429 -4.29017 34040 ft 466 kts 272°
2026-05-05 15:30 53.64801 -4.39909 34036 ft 465 kts 272°
2026-05-05 15:31 53.65163 -4.50780 34038 ft 465 kts 272°
2026-05-05 15:31 53.65511 -4.61656 34058 ft 464 kts 272°
2026-05-05 15:32 53.65853 -4.72513 34050 ft 464 kts 272°
2026-05-05 15:32 53.66185 -4.83365 34056 ft 463 kts 272°
2026-05-05 15:33 53.66506 -4.94214 34057 ft 463 kts 272°
2026-05-05 15:33 53.66816 -5.05053 34062 ft 463 kts 272°
2026-05-05 15:34 53.67117 -5.15897 34061 ft 463 kts 272°
2026-05-05 15:34 53.67408 -5.26752 34064 ft 464 kts 272°
2026-05-05 15:35 53.67693 -5.37631 34064 ft 464 kts 272°
2026-05-05 15:35 53.68437 -5.48374 34057 ft 465 kts 284°
2026-05-05 15:36 53.70688 -5.58609 34063 ft 467 kts 297°
2026-05-05 15:36 53.73851 -5.68218 34063 ft 468 kts 298°
2026-05-05 15:37 53.77054 -5.77812 34068 ft 468 kts 298°
2026-05-05 15:37 53.80213 -5.87442 34072 ft 468 kts 297°
2026-05-05 15:38 53.83344 -5.97110 34067 ft 468 kts 297°
2026-05-05 15:38 53.86220 -6.06048 34075 ft 468 kts 297°
2026-05-05 15:39 53.89334 -6.15760 34065 ft 468 kts 297°
2026-05-05 15:39 53.92437 -6.25468 34065 ft 468 kts 297°
2026-05-05 15:40 53.95528 -6.35177 34060 ft 467 kts 297°
2026-05-05 15:40 53.98609 -6.44893 34066 ft 467 kts 297°
2026-05-05 15:41 54.01665 -6.54573 34066 ft 467 kts 297°
2026-05-05 15:41 54.04728 -6.64311 34070 ft 467 kts 297°
2026-05-05 15:42 54.07784 -6.74066 34080 ft 467 kts 297°
2026-05-05 15:42 54.10835 -6.83847 34058 ft 467 kts 297°
2026-05-05 15:43 54.13875 -6.93629 34069 ft 466 kts 297°
2026-05-05 15:43 54.16902 -7.03410 34079 ft 466 kts 296°
2026-05-05 15:44 54.19923 -7.13213 34076 ft 466 kts 296°
2026-05-05 15:44 54.22931 -7.23017 34075 ft 465 kts 296°
2026-05-05 15:45 54.25910 -7.32761 34077 ft 465 kts 296°
2026-05-05 15:45 54.28892 -7.42594 34067 ft 465 kts 296°
2026-05-05 15:46 54.31784 -7.52502 34088 ft 465 kts 295°
2026-05-05 15:46 54.34649 -7.62445 34076 ft 465 kts 295°
2026-05-05 15:47 54.37515 -7.72405 34070 ft 465 kts 295°
2026-05-05 15:47 54.40373 -7.82345 34084 ft 464 kts 295°
2026-05-05 15:48 54.43223 -7.92294 34077 ft 465 kts 295°
2026-05-05 15:48 54.46051 -8.02205 34102 ft 464 kts 295°
2026-05-05 15:49 54.48892 -8.12206 34113 ft 465 kts 295°
2026-05-05 15:49 54.51722 -8.22215 34092 ft 465 kts 294°
2026-05-05 15:50 54.54545 -8.32240 34088 ft 465 kts 294°
2026-05-05 15:50 54.57360 -8.42281 34102 ft 465 kts 294°
2026-05-05 15:51 54.60166 -8.52330 34107 ft 465 kts 294°
2026-05-05 15:51 54.62963 -8.62394 34102 ft 465 kts 294°
2026-05-05 15:52 54.65758 -8.72494 34114 ft 465 kts 294°
2026-05-05 15:52 54.68541 -8.82593 34112 ft 466 kts 294°
2026-05-05 15:53 54.71319 -8.92722 34119 ft 465 kts 294°
2026-05-05 15:53 54.74083 -9.02843 34122 ft 465 kts 294°
2026-05-05 15:54 54.76834 -9.12960 34124 ft 464 kts 294°
2026-05-05 15:54 54.79555 -9.23010 34121 ft 463 kts 293°
2026-05-05 15:55 54.82280 -9.33124 34127 ft 462 kts 294°
2026-05-05 15:55 54.84994 -9.43236 34126 ft 462 kts 294°
2026-05-05 15:56 54.87598 -9.52986 34133 ft 461 kts 293°
2026-05-05 15:56 54.90287 -9.63094 34147 ft 461 kts 293°
2026-05-05 15:57 54.92963 -9.73203 34139 ft 461 kts 293°
2026-05-05 15:57 54.95636 -9.83341 34135 ft 460 kts 293°
2026-05-05 15:58 54.98278 -9.93403 34144 ft 460 kts 293°
2026-05-05 15:58 55.00509 -10.03812 34145 ft 457 kts 283°
2026-05-05 15:59 55.01821 -10.14635 34148 ft 456 kts 281°
2026-05-05 15:59 55.03085 -10.25474 34139 ft 456 kts 281°
2026-05-05 16:00 55.04361 -10.36301 34146 ft 456 kts 281°
2026-05-05 16:00 55.05640 -10.47140 34144 ft 456 kts 281°
2026-05-05 16:01 55.06902 -10.57891 34168 ft 455 kts 281°
2026-05-05 16:01 55.08162 -10.68722 34156 ft 455 kts 281°
2026-05-05 16:02 55.09409 -10.79532 34151 ft 454 kts 281°
2026-05-05 16:02 55.10647 -10.90356 34155 ft 454 kts 281°
2026-05-05 16:03 55.11874 -11.01178 34154 ft 454 kts 280°
2026-05-05 16:03 55.13090 -11.11991 34159 ft 453 kts 280°
2026-05-05 16:04 55.14295 -11.22802 34158 ft 453 kts 280°
2026-05-05 16:04 55.15484 -11.33556 34159 ft 453 kts 280°
2026-05-05 16:05 55.16670 -11.44375 34157 ft 453 kts 280°
2026-05-05 16:05 55.17848 -11.55214 34161 ft 453 kts 280°
2026-05-05 16:06 55.19015 -11.66052 34161 ft 453 kts 280°
2026-05-05 16:06 55.20174 -11.76913 34163 ft 454 kts 280°
2026-05-05 16:07 55.21324 -11.87776 34182 ft 454 kts 279°
2026-05-05 16:07 55.22463 -11.98644 34170 ft 454 kts 279°
2026-05-05 16:08 55.23594 -12.09524 34165 ft 454 kts 279°
2026-05-05 16:08 55.24713 -12.20399 34176 ft 453 kts 279°
2026-05-05 16:09 55.25825 -12.31291 34167 ft 453 kts 279°
2026-05-05 16:09 55.26916 -12.42095 34173 ft 453 kts 279°
2026-05-05 16:10 55.28008 -12.52994 34178 ft 454 kts 279°
2026-05-05 16:10 55.29089 -12.63899 34176 ft 454 kts 279°
2026-05-05 16:11 55.30161 -12.74816 34176 ft 454 kts 279°
2026-05-05 16:12 55.32278 -12.96678 34181 ft 454 kts 279°
2026-05-05 16:13 55.34874 -13.24096 34191 ft 455 kts 279°
2026-05-05 16:13 55.35723 -13.33215 34184 ft 455 kts 278°
2026-05-05 16:14 55.37743 -13.55214 34190 ft 456 kts 278°
2026-05-05 16:15 55.39724 -13.77261 34192 ft 456 kts 278°
2026-05-05 16:16 55.41667 -13.99337 34191 ft 456 kts 278°
2026-05-05 16:17 55.43093 -14.15850 34195 ft 457 kts 278°
2026-05-05 16:18 55.44504 -14.32461 34194 ft 457 kts 278°
2026-05-05 16:19 55.45895 -14.49109 34195 ft 458 kts 278°
2026-05-05 16:19 55.47264 -14.65783 34195 ft 459 kts 278°
2026-05-05 16:20 55.49058 -14.88068 34207 ft 459 kts 278°
2026-05-05 16:22 55.51866 -15.15754 34210 ft 460 kts 282°
2026-05-05 16:23 55.54539 -15.37796 34207 ft 460 kts 282°
2026-05-05 16:23 55.56495 -15.54392 34208 ft 460 kts 282°
2026-05-05 16:24 55.57783 -15.65461 34224 ft 460 kts 282°
2026-05-05 16:25 55.59701 -15.82110 34202 ft 461 kts 282°
2026-05-05 16:25 55.61591 -15.98716 34214 ft 461 kts 282°
2026-05-05 16:26 55.64090 -16.21009 34219 ft 462 kts 281°
2026-05-05 16:27 55.65328 -16.32199 34222 ft 463 kts 281°
2026-05-05 16:27 55.66555 -16.43392 34219 ft 463 kts 281°
2026-05-05 16:28 55.67772 -16.54588 34219 ft 463 kts 281°
2026-05-05 16:28 55.68980 -16.65805 34230 ft 463 kts 281°
2026-05-05 16:29 55.70178 -16.77035 34236 ft 463 kts 281°
2026-05-05 16:29 55.71357 -16.88200 34228 ft 463 kts 281°
2026-05-05 16:30 55.72534 -16.99448 34227 ft 463 kts 281°
2026-05-05 16:30 55.73698 -17.10688 34204 ft 463 kts 281°
2026-05-05 16:31 55.74856 -17.21920 34226 ft 462 kts 281°
2026-05-05 16:31 55.76000 -17.33153 34232 ft 462 kts 281°
2026-05-05 16:32 55.77127 -17.44323 34229 ft 462 kts 281°
2026-05-05 16:32 55.78248 -17.55588 34229 ft 463 kts 281°
2026-05-05 16:33 55.79367 -17.66849 34231 ft 463 kts 281°
2026-05-05 16:33 55.80473 -17.78129 34234 ft 463 kts 280°
2026-05-05 16:34 55.81568 -17.89413 34251 ft 463 kts 280°
2026-05-05 16:34 55.82647 -18.00695 34234 ft 462 kts 280°
2026-05-05 16:35 55.83714 -18.11955 34239 ft 460 kts 280°
2026-05-05 16:35 55.84770 -18.23180 34238 ft 459 kts 280°
2026-05-05 16:36 55.85809 -18.34321 34225 ft 458 kts 280°
2026-05-05 16:36 55.86841 -18.45524 34239 ft 459 kts 280°
2026-05-05 16:37 55.87865 -18.56737 34245 ft 460 kts 280°
2026-05-05 16:37 55.88881 -18.67990 34248 ft 461 kts 280°
2026-05-05 16:38 55.89890 -18.79285 34246 ft 461 kts 280°
2026-05-05 16:38 55.90889 -18.90596 34244 ft 462 kts 280°
2026-05-05 16:39 55.91877 -19.01925 34231 ft 464 kts 281°
2026-05-05 16:39 55.92864 -19.13327 34252 ft 466 kts 281°
2026-05-05 16:40 55.93846 -19.24807 34251 ft 469 kts 281°
2026-05-05 16:40 55.94814 -19.36264 34251 ft 471 kts 281°
2026-05-05 16:41 55.95779 -19.47827 34247 ft 471 kts 280°
2026-05-05 16:41 55.96734 -19.59394 34247 ft 471 kts 280°
2026-05-05 16:42 55.97677 -19.70953 34243 ft 470 kts 281°
2026-05-05 16:42 55.98610 -19.82518 34251 ft 470 kts 281°
2026-05-05 16:43 55.99533 -19.94076 34253 ft 470 kts 281°
2026-05-05 16:43 56.00708 -20.05481 34253 ft 468 kts 287°
2026-05-05 16:44 56.02338 -20.16729 34256 ft 467 kts 287°
2026-05-05 16:44 56.03965 -20.27980 34231 ft 468 kts 287°
2026-05-05 16:45 56.05566 -20.39265 34247 ft 468 kts 287°
2026-05-05 16:45 56.07147 -20.50567 34248 ft 468 kts 287°
2026-05-05 16:46 56.08715 -20.61889 34252 ft 469 kts 287°
2026-05-05 16:46 56.10277 -20.73246 34266 ft 469 kts 287°
2026-05-05 16:47 56.11827 -20.84600 34256 ft 469 kts 287°
2026-05-05 16:47 56.13368 -20.95969 34238 ft 469 kts 287°
2026-05-05 16:48 56.14889 -21.07279 34252 ft 469 kts 287°
2026-05-05 16:48 56.16409 -21.18667 34260 ft 469 kts 287°
2026-05-05 16:49 56.17918 -21.30060 34260 ft 469 kts 287°
2026-05-05 16:49 56.19415 -21.41450 34258 ft 469 kts 287°
2026-05-05 16:50 56.20904 -21.52867 34259 ft 469 kts 287°
2026-05-05 16:50 56.22382 -21.64282 34228 ft 469 kts 287°
2026-05-05 16:51 56.23840 -21.75639 34257 ft 469 kts 287°
2026-05-05 16:51 56.25297 -21.87080 34267 ft 470 kts 287°
2026-05-05 16:52 56.26746 -21.98545 34257 ft 470 kts 287°
2026-05-05 16:52 56.28183 -22.10012 34265 ft 469 kts 287°
2026-05-05 16:53 56.29609 -22.21484 34264 ft 469 kts 287°
2026-05-05 16:53 56.31023 -22.32958 34258 ft 469 kts 287°
2026-05-05 16:54 56.32426 -22.44435 34256 ft 469 kts 287°
2026-05-05 16:54 56.33819 -22.55913 34261 ft 469 kts 287°
2026-05-05 16:55 56.35193 -22.67342 34262 ft 470 kts 287°
2026-05-05 16:55 56.36569 -22.78874 34256 ft 470 kts 287°
2026-05-05 16:56 56.37931 -22.90397 34261 ft 470 kts 287°
2026-05-05 16:56 56.39281 -23.01913 34259 ft 469 kts 287°
2026-05-05 16:57 56.40618 -23.13425 34252 ft 469 kts 287°
2026-05-05 16:57 56.41947 -23.24957 34263 ft 468 kts 287°
2026-05-05 16:58 56.43265 -23.36505 34264 ft 469 kts 287°
2026-05-05 16:58 56.44571 -23.48040 34260 ft 469 kts 287°
2026-05-05 16:59 56.45868 -23.59602 34262 ft 469 kts 287°
2026-05-05 16:59 56.47146 -23.71097 34261 ft 469 kts 287°
2026-05-05 17:00 56.48422 -23.82678 34255 ft 469 kts 287°
2026-05-05 17:00 56.49688 -23.94267 34262 ft 469 kts 287°
2026-05-05 17:01 56.50941 -24.05847 34260 ft 470 kts 287°
2026-05-05 17:01 56.52184 -24.17450 34262 ft 470 kts 286°
2026-05-05 17:02 56.53418 -24.29074 34261 ft 470 kts 286°
2026-05-05 17:02 56.54436 -24.38745 34257 ft 470 kts 286°
2026-05-05 17:03 56.55650 -24.50387 34257 ft 470 kts 286°
2026-05-05 17:03 56.56853 -24.62025 34261 ft 470 kts 286°
2026-05-05 17:04 56.58045 -24.73675 34256 ft 469 kts 285°
2026-05-05 17:04 56.59224 -24.85308 34257 ft 468 kts 285°
2026-05-05 17:05 56.60388 -24.96916 34257 ft 467 kts 285°
2026-05-05 17:05 56.61532 -25.08430 34278 ft 466 kts 285°
2026-05-05 17:06 56.62673 -25.20024 34248 ft 466 kts 285°
2026-05-05 17:06 56.63803 -25.31620 34263 ft 466 kts 285°
2026-05-05 17:07 56.64921 -25.43215 34263 ft 466 kts 285°
2026-05-05 17:07 56.66033 -25.54829 34272 ft 467 kts 285°
2026-05-05 17:08 56.67130 -25.66408 34276 ft 466 kts 284°
2026-05-05 17:08 56.68217 -25.78057 34267 ft 466 kts 284°
2026-05-05 17:09 56.69286 -25.89671 34245 ft 465 kts 284°
2026-05-05 17:09 56.70340 -26.01172 34261 ft 464 kts 284°
2026-05-05 17:10 56.71392 -26.12772 34272 ft 464 kts 284°
2026-05-05 17:10 56.72431 -26.24370 34276 ft 465 kts 284°
2026-05-05 17:11 56.73461 -26.36004 34273 ft 465 kts 284°
2026-05-05 17:11 56.74482 -26.47662 34273 ft 466 kts 284°
2026-05-05 17:12 56.75491 -26.59329 34240 ft 465 kts 283°
2026-05-05 17:12 56.76489 -26.70982 34267 ft 465 kts 283°
2026-05-05 17:13 56.77468 -26.82556 34267 ft 465 kts 283°
2026-05-05 17:13 56.78444 -26.94215 34274 ft 465 kts 283°
2026-05-05 17:14 56.79408 -27.05880 34277 ft 465 kts 283°
2026-05-05 17:14 56.80363 -27.17567 34280 ft 465 kts 283°
2026-05-05 17:15 56.81307 -27.29256 34267 ft 465 kts 283°
2026-05-05 17:15 56.82239 -27.40951 34264 ft 465 kts 282°
2026-05-05 17:16 56.83162 -27.52655 34268 ft 466 kts 282°
2026-05-05 17:16 56.84073 -27.64366 34270 ft 466 kts 282°
2026-05-05 17:17 56.84968 -27.76020 34268 ft 466 kts 282°
2026-05-05 17:17 56.85858 -27.87747 34272 ft 466 kts 282°
2026-05-05 17:18 56.86737 -27.99496 34271 ft 466 kts 282°
2026-05-05 17:18 56.87606 -28.11246 34264 ft 466 kts 281°
2026-05-05 17:19 56.88463 -28.22998 34272 ft 467 kts 281°
2026-05-05 17:19 56.89312 -28.34789 34273 ft 468 kts 281°
2026-05-05 17:20 56.90151 -28.46602 34270 ft 468 kts 281°
2026-05-05 17:20 56.90979 -28.58438 34270 ft 468 kts 281°
2026-05-05 17:21 56.91796 -28.70275 34273 ft 469 kts 281°
2026-05-05 17:22 56.93001 -28.88043 34265 ft 469 kts 280°
2026-05-05 17:22 56.93787 -28.99834 34278 ft 470 kts 280°
2026-05-05 17:23 56.94567 -29.11724 34272 ft 471 kts 280°
2026-05-05 17:23 56.95338 -29.23641 34267 ft 471 kts 280°
2026-05-05 17:24 56.96098 -29.35577 34271 ft 471 kts 280°
2026-05-05 17:24 56.96846 -29.47511 34268 ft 471 kts 279°
2026-05-05 17:25 56.97583 -29.59465 34270 ft 472 kts 279°
2026-05-05 17:25 56.98307 -29.71353 34279 ft 473 kts 279°
2026-05-05 17:26 56.99025 -29.83374 34276 ft 474 kts 279°
2026-05-05 17:26 56.99734 -29.95399 34271 ft 474 kts 279°
2026-05-05 17:27 57.00367 -30.07468 34275 ft 475 kts 277°
2026-05-05 17:27 57.00819 -30.19555 34278 ft 475 kts 276°
2026-05-05 17:28 57.01238 -30.31660 34265 ft 475 kts 276°
2026-05-05 17:28 57.01669 -30.43763 34262 ft 476 kts 276°
2026-05-05 17:29 57.02101 -30.55815 34266 ft 477 kts 276°
2026-05-05 17:29 57.02528 -30.67992 34274 ft 478 kts 276°
2026-05-05 17:30 57.02942 -30.80178 34271 ft 478 kts 276°
2026-05-05 17:30 57.03345 -30.92331 34272 ft 479 kts 276°
2026-05-05 17:31 57.03725 -31.04178 34267 ft 479 kts 275°
2026-05-05 17:31 57.04102 -31.16398 34268 ft 479 kts 275°
2026-05-05 17:32 57.04472 -31.28647 34268 ft 480 kts 275°
2026-05-05 17:32 57.04827 -31.40844 34265 ft 480 kts 275°
2026-05-05 17:33 57.05174 -31.53113 34272 ft 481 kts 275°
2026-05-05 17:33 57.05508 -31.65376 34265 ft 481 kts 275°
2026-05-05 17:34 57.05829 -31.77601 34254 ft 482 kts 274°
2026-05-05 17:34 57.06140 -31.89951 34263 ft 482 kts 274°
2026-05-05 17:35 57.06436 -32.02202 34272 ft 482 kts 274°
2026-05-05 17:35 57.06722 -32.14500 34255 ft 482 kts 274°
2026-05-05 17:36 57.06996 -32.26807 34251 ft 481 kts 274°
2026-05-05 17:36 57.07258 -32.39103 34239 ft 481 kts 274°
2026-05-05 17:37 57.07509 -32.51422 34255 ft 482 kts 273°
2026-05-05 17:37 57.07746 -32.63752 34261 ft 483 kts 273°
2026-05-05 17:38 57.07973 -32.76127 34256 ft 485 kts 273°
2026-05-05 17:38 57.08186 -32.88455 34254 ft 486 kts 273°
2026-05-05 17:39 57.08390 -33.00890 34252 ft 486 kts 273°
2026-05-05 17:39 57.08581 -33.13323 34246 ft 486 kts 272°
2026-05-05 17:40 57.08760 -33.25752 34247 ft 486 kts 272°
2026-05-05 17:40 57.08926 -33.38187 34249 ft 486 kts 272°
2026-05-05 17:41 57.09079 -33.50595 34248 ft 486 kts 272°
2026-05-05 17:41 57.09220 -33.62949 34247 ft 486 kts 272°
2026-05-05 17:42 57.09350 -33.75360 34244 ft 486 kts 272°
2026-05-05 17:42 57.09467 -33.87794 34225 ft 487 kts 271°
2026-05-05 17:43 57.09572 -34.00245 34240 ft 488 kts 271°
2026-05-05 17:43 57.09665 -34.12736 34239 ft 489 kts 271°
2026-05-05 17:44 57.09746 -34.25267 34242 ft 490 kts 271°
2026-05-05 17:44 57.09814 -34.37796 34237 ft 490 kts 271°
2026-05-05 17:45 57.09870 -34.50298 34236 ft 490 kts 271°
2026-05-05 17:45 57.09914 -34.62787 34238 ft 492 kts 270°
2026-05-05 17:46 57.09944 -34.75373 34238 ft 493 kts 270°
2026-05-05 17:46 57.09962 -34.88003 34227 ft 494 kts 270°
2026-05-05 17:47 57.09968 -35.00648 34232 ft 494 kts 270°
2026-05-05 17:47 57.09961 -35.13292 34231 ft 494 kts 270°
2026-05-05 17:48 57.09941 -35.25919 34228 ft 494 kts 269°
2026-05-05 17:48 57.09909 -35.38556 34220 ft 494 kts 269°
2026-05-05 17:49 57.09864 -35.51179 34226 ft 493 kts 269°
2026-05-05 17:49 57.09806 -35.63803 34221 ft 494 kts 269°
2026-05-05 17:50 57.09748 -35.74315 34218 ft 494 kts 269°
2026-05-05 17:50 57.09652 -35.89034 34216 ft 495 kts 268°
2026-05-05 17:51 57.09556 -36.01706 34208 ft 496 kts 268°
2026-05-05 17:51 57.09466 -36.12249 34211 ft 497 kts 268°
2026-05-05 17:52 57.09346 -36.24966 34205 ft 498 kts 268°
2026-05-05 17:52 57.09213 -36.37703 34210 ft 499 kts 268°
2026-05-05 17:53 57.09066 -36.50473 34197 ft 499 kts 268°
2026-05-05 17:53 57.08907 -36.63237 34207 ft 500 kts 267°
2026-05-05 17:54 57.08735 -36.76015 34207 ft 501 kts 266°
2026-05-05 17:54 57.08548 -36.88851 34202 ft 503 kts 266°
2026-05-05 17:55 57.08347 -37.01734 34197 ft 505 kts 266°
2026-05-05 17:55 57.08133 -37.14646 34189 ft 505 kts 266°
2026-05-05 17:56 57.07906 -37.27550 34182 ft 505 kts 266°
2026-05-05 17:56 57.07665 -37.40472 34179 ft 505 kts 266°
2026-05-05 17:57 57.07411 -37.53406 34183 ft 506 kts 265°
2026-05-05 17:57 57.07142 -37.66351 34178 ft 508 kts 265°
2026-05-05 17:58 57.06862 -37.79254 34176 ft 509 kts 265°
2026-05-05 17:58 57.06565 -37.92270 34167 ft 510 kts 265°
2026-05-05 17:59 57.06256 -38.05282 34167 ft 510 kts 265°
2026-05-05 17:59 57.05933 -38.18297 34167 ft 510 kts 264°
2026-05-05 18:00 57.05595 -38.31340 34162 ft 512 kts 264°
2026-05-05 18:00 57.05242 -38.44409 34156 ft 513 kts 263°
2026-05-05 18:01 57.04876 -38.57486 34155 ft 513 kts 263°
2026-05-05 18:01 57.04496 -38.70585 34148 ft 514 kts 263°
2026-05-05 18:02 57.04102 -38.83679 34150 ft 514 kts 263°
2026-05-05 18:02 57.03694 -38.96785 34152 ft 514 kts 263°
2026-05-05 18:03 57.03272 -39.09907 34136 ft 514 kts 263°
2026-05-05 18:03 57.02840 -39.22905 34137 ft 514 kts 263°
2026-05-05 18:04 57.02392 -39.35982 34127 ft 513 kts 263°
2026-05-05 18:04 57.01930 -39.49055 34127 ft 513 kts 263°
2026-05-05 18:05 57.01454 -39.62125 34141 ft 514 kts 262°
2026-05-05 18:05 57.00961 -39.75280 34135 ft 518 kts 262°
2026-05-05 18:06 57.00455 -39.88489 34103 ft 520 kts 262°
2026-05-05 18:06 57.00044 -40.01778 34096 ft 524 kts 266°
2026-05-05 18:07 57.00494 -40.15183 34104 ft 527 kts 271°
2026-05-05 18:07 57.01067 -40.28526 34106 ft 528 kts 271°
2026-05-05 18:08 57.01603 -40.41988 34113 ft 529 kts 270°
2026-05-05 18:08 57.02096 -40.55504 34105 ft 531 kts 270°
2026-05-05 18:09 57.02566 -40.69063 34087 ft 532 kts 270°
2026-05-05 18:09 57.03023 -40.82620 34089 ft 532 kts 270°
2026-05-05 18:10 57.03464 -40.96128 34085 ft 533 kts 270°
2026-05-05 18:10 57.03896 -41.09728 34079 ft 532 kts 269°
2026-05-05 18:11 57.04312 -41.23302 34080 ft 534 kts 269°
2026-05-05 18:11 57.04714 -41.36974 34070 ft 537 kts 269°
2026-05-05 18:12 57.05104 -41.50725 34069 ft 539 kts 269°
2026-05-05 18:12 57.05481 -41.64502 34069 ft 541 kts 269°
2026-05-05 18:13 57.05842 -41.78243 34054 ft 541 kts 268°
2026-05-05 18:13 57.06189 -41.92061 34060 ft 541 kts 268°
2026-05-05 18:14 57.06521 -42.05904 34057 ft 543 kts 268°
2026-05-05 18:14 57.06838 -42.19779 34051 ft 545 kts 268°
2026-05-05 18:15 57.07140 -42.33706 34044 ft 547 kts 268°
2026-05-05 18:15 57.07430 -42.47705 34048 ft 548 kts 267°
2026-05-05 18:16 57.07704 -42.61712 34040 ft 548 kts 267°
2026-05-05 18:16 57.07962 -42.75650 34035 ft 548 kts 267°
2026-05-05 18:17 57.08205 -42.89664 34048 ft 549 kts 267°
2026-05-05 18:17 57.08432 -43.03726 34034 ft 550 kts 266°
2026-05-05 18:18 57.08644 -43.17804 34028 ft 551 kts 266°
2026-05-05 18:18 57.08841 -43.31909 34021 ft 552 kts 266°
2026-05-05 18:19 57.09023 -43.46015 34022 ft 552 kts 266°
2026-05-05 18:19 57.09188 -43.60133 34019 ft 552 kts 266°
2026-05-05 18:20 57.09338 -43.74234 34047 ft 551 kts 266°
2026-05-05 18:20 57.09472 -43.88292 34008 ft 548 kts 266°
2026-05-05 18:21 57.09589 -44.02292 33998 ft 547 kts 266°
2026-05-05 18:21 57.09688 -44.16178 34000 ft 546 kts 265°
2026-05-05 18:22 57.09773 -44.30163 33992 ft 547 kts 265°
2026-05-05 18:22 57.09842 -44.44161 33997 ft 548 kts 265°
2026-05-05 18:23 57.09898 -44.58142 34001 ft 543 kts 265°
2026-05-05 18:23 57.09941 -44.71940 33986 ft 538 kts 265°
2026-05-05 18:24 57.09959 -44.85788 33973 ft 545 kts 265°
2026-05-05 18:24 57.09963 -44.99783 33978 ft 549 kts 265°
2026-05-05 18:25 57.09956 -45.13854 33972 ft 551 kts 265°
2026-05-05 18:25 57.09936 -45.27928 33956 ft 549 kts 264°
2026-05-05 18:26 57.09902 -45.41856 33955 ft 536 kts 264°
2026-05-05 18:26 57.09853 -45.55459 33949 ft 532 kts 264°
2026-05-05 18:27 57.09778 -45.69049 33955 ft 537 kts 264°
2026-05-05 18:27 57.09691 -45.82773 33943 ft 542 kts 264°
2026-05-05 18:28 57.09538 -46.03612 33929 ft 543 kts 264°
2026-05-05 18:28 57.09418 -46.17481 33952 ft 541 kts 264°
2026-05-05 18:29 57.09289 -46.31125 33911 ft 527 kts 264°
2026-05-05 18:29 57.09139 -46.44609 33925 ft 530 kts 264°
2026-05-05 18:30 57.08969 -46.58197 33918 ft 534 kts 264°
2026-05-05 18:30 57.08789 -46.71818 33913 ft 537 kts 264°
2026-05-05 18:31 57.08594 -46.85549 33893 ft 538 kts 264°
2026-05-05 18:31 57.08385 -46.99310 33892 ft 537 kts 263°
2026-05-05 18:32 57.08162 -47.13000 33889 ft 535 kts 263°
2026-05-05 18:32 57.07923 -47.26646 33876 ft 533 kts 263°
2026-05-05 18:33 57.07669 -47.40269 33883 ft 533 kts 263°
2026-05-05 18:33 57.07401 -47.53881 33862 ft 533 kts 263°
2026-05-05 18:34 57.07117 -47.67501 33860 ft 533 kts 263°
2026-05-05 18:34 57.06820 -47.81117 33861 ft 533 kts 263°
2026-05-05 18:35 57.06509 -47.94646 33850 ft 532 kts 263°
2026-05-05 18:35 57.06186 -48.08207 33843 ft 530 kts 263°
2026-05-05 18:36 57.05847 -48.21711 33824 ft 528 kts 263°
2026-05-05 18:36 57.05492 -48.35199 33831 ft 528 kts 263°
2026-05-05 18:37 57.05124 -48.48675 33830 ft 529 kts 262°
2026-05-05 18:37 57.04742 -48.62162 33814 ft 530 kts 262°
2026-05-05 18:38 57.04412 -48.73410 33833 ft 530 kts 263°
2026-05-05 18:38 57.04003 -48.86928 33797 ft 529 kts 263°
2026-05-05 18:39 57.03580 -49.00396 33788 ft 528 kts 263°
2026-05-05 18:39 57.03143 -49.13843 33794 ft 527 kts 262°
2026-05-05 18:40 57.02692 -49.27277 33772 ft 526 kts 262°
2026-05-05 18:40 57.02227 -49.40688 33777 ft 526 kts 262°
2026-05-05 18:41 57.01748 -49.54093 33786 ft 526 kts 262°
2026-05-05 18:41 57.01259 -49.67388 33761 ft 525 kts 262°
2026-05-05 18:42 57.00755 -49.80765 33768 ft 525 kts 262°
2026-05-05 18:42 57.00102 -49.94108 33735 ft 522 kts 256°
2026-05-05 18:43 56.98308 -50.06919 33742 ft 516 kts 246°
2026-05-05 18:43 56.95507 -50.18939 33730 ft 512 kts 241°
2026-05-05 18:44 56.92557 -50.30824 33738 ft 513 kts 241°
2026-05-05 18:44 56.89623 -50.42729 33715 ft 512 kts 242°
2026-05-05 18:45 56.86726 -50.54532 33710 ft 512 kts 242°
2026-05-05 18:45 56.83816 -50.66358 33704 ft 511 kts 241°
2026-05-05 18:46 56.80893 -50.78166 33725 ft 510 kts 242°
2026-05-05 18:46 56.77959 -50.89943 33688 ft 509 kts 242°
2026-05-05 18:47 56.75020 -51.01683 33677 ft 508 kts 242°
2026-05-05 18:47 56.72077 -51.13372 33678 ft 507 kts 242°
2026-05-05 18:48 56.69129 -51.25020 33665 ft 507 kts 242°
2026-05-05 18:48 56.66163 -51.36677 33684 ft 507 kts 242°
2026-05-05 18:49 56.63192 -51.48292 33653 ft 507 kts 242°
2026-05-05 18:49 56.60212 -51.59888 33653 ft 506 kts 242°
2026-05-05 18:50 56.57245 -51.71370 33642 ft 506 kts 242°
2026-05-05 18:50 56.54250 -51.82899 33641 ft 505 kts 242°
2026-05-05 18:51 56.51243 -51.94415 33636 ft 505 kts 242°
2026-05-05 18:51 56.48230 -52.05897 33634 ft 504 kts 242°
2026-05-05 18:52 56.45210 -52.17346 33618 ft 504 kts 242°
2026-05-05 18:52 56.42183 -52.28767 33619 ft 503 kts 242°
2026-05-05 18:53 56.39150 -52.40147 33618 ft 503 kts 241°
2026-05-05 18:53 56.36110 -52.51501 33620 ft 502 kts 242°
2026-05-05 18:54 56.33067 -52.62811 33606 ft 501 kts 241°
2026-05-05 18:54 56.30037 -52.74015 33603 ft 500 kts 241°
2026-05-05 18:55 56.26986 -52.85239 33599 ft 499 kts 241°
2026-05-05 18:55 56.23926 -52.96441 33605 ft 498 kts 242°
2026-05-05 18:56 56.20863 -53.07594 33582 ft 497 kts 242°
2026-05-05 18:56 56.17788 -53.18753 33597 ft 497 kts 241°
2026-05-05 18:57 56.14714 -53.29843 33584 ft 496 kts 241°
2026-05-05 18:57 56.11633 -53.40899 33594 ft 496 kts 240°
2026-05-05 18:58 56.08534 -53.51971 33574 ft 497 kts 240°
2026-05-05 18:58 56.05442 -53.62974 33565 ft 498 kts 240°
2026-05-05 18:59 56.02311 -53.74055 33567 ft 499 kts 240°
2026-05-05 18:59 55.99160 -53.85149 33558 ft 500 kts 240°
2026-05-05 19:00 55.96006 -53.96205 33560 ft 500 kts 240°
2026-05-05 19:00 55.92843 -54.07246 33564 ft 499 kts 241°
2026-05-05 19:01 55.89682 -54.18231 33546 ft 497 kts 241°
2026-05-05 19:01 55.86520 -54.29168 33531 ft 495 kts 241°
2026-05-05 19:02 55.83357 -54.40036 33550 ft 494 kts 241°
2026-05-05 19:02 55.80189 -54.50882 33530 ft 495 kts 241°
2026-05-05 19:03 55.77034 -54.61640 33540 ft 493 kts 241°
2026-05-05 19:03 55.73864 -54.72403 33534 ft 491 kts 240°
2026-05-05 19:04 55.70683 -54.83145 33533 ft 491 kts 240°
2026-05-05 19:04 55.67494 -54.93860 33539 ft 493 kts 240°
2026-05-05 19:05 55.64283 -55.04603 33540 ft 494 kts 240°
2026-05-05 19:05 55.61056 -55.15356 33527 ft 494 kts 240°
2026-05-05 19:06 55.57827 -55.26067 33529 ft 494 kts 241°
2026-05-05 19:06 55.54579 -55.36790 33533 ft 493 kts 240°
2026-05-05 19:07 55.51335 -55.47453 33534 ft 493 kts 240°
2026-05-05 19:07 55.48088 -55.58078 33537 ft 491 kts 241°
2026-05-05 19:08 55.44843 -55.68647 33528 ft 489 kts 241°
2026-05-05 19:08 55.41596 -55.79174 33528 ft 488 kts 240°
2026-05-05 19:09 55.38352 -55.89648 33529 ft 487 kts 240°
2026-05-05 19:09 55.35119 -56.00039 33532 ft 488 kts 240°
2026-05-05 19:10 55.31856 -56.10479 33533 ft 488 kts 241°
2026-05-05 19:10 55.28578 -56.20927 33525 ft 488 kts 240°
2026-05-05 19:11 55.25293 -56.31350 33530 ft 488 kts 240°
2026-05-05 19:11 55.21998 -56.41761 33531 ft 488 kts 240°
2026-05-05 19:12 55.18697 -56.52141 33526 ft 488 kts 240°
2026-05-05 19:12 55.15395 -56.62483 33529 ft 486 kts 241°
2026-05-05 19:13 55.12117 -56.72708 33528 ft 485 kts 241°
2026-05-05 19:13 55.08816 -56.82960 33533 ft 484 kts 240°
2026-05-05 19:14 55.05511 -56.93188 33526 ft 483 kts 240°
2026-05-05 19:14 55.02047 -57.03222 33515 ft 483 kts 235°
2026-05-05 19:15 54.98076 -57.12642 33521 ft 481 kts 234°
2026-05-05 19:15 54.94101 -57.22006 33533 ft 481 kts 234°
2026-05-05 19:16 54.90141 -57.31366 33526 ft 480 kts 234°
2026-05-05 19:16 54.86190 -57.40711 33529 ft 480 kts 234°
2026-05-05 19:17 54.82239 -57.50030 33530 ft 479 kts 234°
2026-05-05 19:17 54.78286 -57.59320 33521 ft 478 kts 234°
2026-05-05 19:18 54.74356 -57.68519 33513 ft 477 kts 234°
2026-05-05 19:18 54.70374 -57.77801 33516 ft 477 kts 234°
2026-05-05 19:19 54.66434 -57.86953 33485 ft 477 kts 234°
2026-05-05 19:19 54.62464 -57.96140 33501 ft 478 kts 234°
2026-05-05 19:20 54.58481 -58.05324 33504 ft 478 kts 234°
2026-05-05 19:20 54.54489 -58.14493 33505 ft 479 kts 234°
2026-05-05 19:21 54.50483 -58.23661 33497 ft 479 kts 234°
2026-05-05 19:21 54.46472 -58.32807 33497 ft 479 kts 234°
2026-05-05 19:22 54.42452 -58.41941 33495 ft 479 kts 234°
2026-05-05 19:22 54.38452 -58.50993 33501 ft 479 kts 234°
2026-05-05 19:23 54.34416 -58.60096 33502 ft 479 kts 234°
2026-05-05 19:23 54.30376 -58.69175 33505 ft 478 kts 234°
2026-05-05 19:24 54.26349 -58.78191 33490 ft 476 kts 234°
2026-05-05 19:24 54.22321 -58.87174 33493 ft 474 kts 234°
2026-05-05 19:25 54.18988 -58.94584 33514 ft 473 kts 234°
2026-05-05 19:25 54.14316 -59.04936 33501 ft 472 kts 234°
2026-05-05 19:26 54.10309 -59.13780 33507 ft 471 kts 234°
2026-05-05 19:26 54.06981 -59.21099 33518 ft 469 kts 234°
2026-05-05 19:27 54.02983 -59.29867 33519 ft 469 kts 234°
2026-05-05 19:27 53.98982 -59.38609 33524 ft 468 kts 234°
2026-05-05 19:28 53.94975 -59.47337 33514 ft 469 kts 234°
2026-05-05 19:28 53.90954 -59.56060 33515 ft 468 kts 234°
2026-05-05 19:29 53.86940 -59.64739 33532 ft 467 kts 234°
2026-05-05 19:29 53.82924 -59.73393 33526 ft 466 kts 234°
2026-05-05 19:30 53.78916 -59.81999 33536 ft 465 kts 234°
2026-05-05 19:30 53.74932 -59.90526 33530 ft 464 kts 234°
2026-05-05 19:31 53.70930 -59.99061 33536 ft 463 kts 234°
2026-05-05 19:31 53.66921 -60.07580 33540 ft 463 kts 234°
2026-05-05 19:32 53.62916 -60.16064 33549 ft 463 kts 234°
2026-05-05 19:32 53.58896 -60.24550 33522 ft 463 kts 235°
2026-05-05 19:33 53.54883 -60.32989 33544 ft 460 kts 235°
2026-05-05 19:33 53.50887 -60.41368 33540 ft 458 kts 235°
2026-05-05 19:34 53.46925 -60.49648 33546 ft 457 kts 235°
2026-05-05 19:35 53.40941 -60.62101 33530 ft 455 kts 235°
2026-05-05 19:35 53.36981 -60.70306 33539 ft 450 kts 235°
2026-05-05 19:36 53.33096 -60.78330 33543 ft 446 kts 235°
2026-05-05 19:36 53.31201 -60.82229 33520 ft 432 kts 235°
2026-05-05 19:36 53.29330 -60.86066 33532 ft 419 kts 235°
2026-05-05 19:36 53.27515 -60.89787 33536 ft 408 kts 236°
2026-05-05 19:37 53.25741 -60.93423 33535 ft 398 kts 236°
2026-05-05 19:37 53.22319 -61.00431 33521 ft 381 kts 236°
2026-05-05 19:38 53.19037 -61.07134 33543 ft 366 kts 236°
2026-05-05 19:38 53.15871 -61.13583 33538 ft 353 kts 236°
2026-05-05 19:39 53.12827 -61.19769 33539 ft 342 kts 236°
2026-05-05 19:39 53.09849 -61.25805 33549 ft 331 kts 237°
2026-05-05 19:40 53.06960 -61.31648 33547 ft 322 kts 237°
2026-05-05 19:40 53.04143 -61.37331 33361 ft 316 kts 237°
2026-05-05 19:40 53.02747 -61.40146 33178 ft 316 kts 237°
2026-05-05 19:41 53.01354 -61.42954 33055 ft 315 kts 237°
2026-05-05 19:41 52.98583 -61.48522 32860 ft 313 kts 237°
2026-05-05 19:41 52.97190 -61.51316 32678 ft 313 kts 237°
2026-05-05 19:42 52.95826 -61.54047 32622 ft 310 kts 237°
2026-05-05 19:42 52.93083 -61.59531 32428 ft 309 kts 237°
2026-05-05 19:43 52.90349 -61.64985 32289 ft 306 kts 238°
2026-05-05 19:43 52.88986 -61.67698 32170 ft 305 kts 238°
2026-05-05 19:43 52.87632 -61.70391 32114 ft 304 kts 238°
2026-05-05 19:43 52.86282 -61.73073 32009 ft 302 kts 237°
2026-05-05 19:44 52.84931 -61.75759 31817 ft 305 kts 237°
2026-05-05 19:44 52.82231 -61.81106 31760 ft 300 kts 238°
2026-05-05 19:44 52.80913 -61.83714 31636 ft 301 kts 238°
2026-05-05 19:45 52.79571 -61.86367 31557 ft 299 kts 238°
2026-05-05 19:45 52.78239 -61.88996 31525 ft 297 kts 238°
2026-05-05 19:45 52.76910 -61.91619 31432 ft 297 kts 238°
2026-05-05 19:45 52.75582 -61.94236 31360 ft 297 kts 238°
2026-05-05 19:46 52.74258 -61.96841 31305 ft 295 kts 238°
2026-05-05 19:46 52.72940 -61.99432 31246 ft 295 kts 238°
2026-05-05 19:46 52.71639 -62.01989 31179 ft 294 kts 238°
2026-05-05 19:46 52.70325 -62.04567 31140 ft 293 kts 238°
2026-05-05 19:47 52.69018 -62.07129 31089 ft 292 kts 238°
2026-05-05 19:47 52.67709 -62.09693 31006 ft 292 kts 238°
2026-05-05 19:47 52.66403 -62.12247 30971 ft 290 kts 238°
2026-05-05 19:47 52.65103 -62.14788 30915 ft 290 kts 238°
2026-05-05 19:48 52.63801 -62.17329 30845 ft 290 kts 238°
2026-05-05 19:48 52.62503 -62.19861 30811 ft 289 kts 238°
2026-05-05 19:48 52.61208 -62.22383 30761 ft 288 kts 238°
2026-05-05 19:48 52.59918 -62.24895 30715 ft 287 kts 238°
2026-05-05 19:49 52.58628 -62.27403 30670 ft 286 kts 238°
2026-05-05 19:49 52.57776 -62.29057 30644 ft 286 kts 238°
2026-05-05 19:49 52.56056 -62.32397 30568 ft 285 kts 238°
2026-05-05 19:49 52.54775 -62.34880 30541 ft 285 kts 238°
2026-05-05 19:50 52.53494 -62.37362 30504 ft 284 kts 238°
2026-05-05 19:50 52.52233 -62.39801 30469 ft 284 kts 238°
2026-05-05 19:50 52.50954 -62.42275 30404 ft 284 kts 238°
2026-05-05 19:50 52.49682 -62.44730 30426 ft 280 kts 238°
2026-05-05 19:51 52.48422 -62.47156 30452 ft 279 kts 238°
2026-05-05 19:51 52.47160 -62.49593 30349 ft 281 kts 238°
2026-05-05 19:51 52.45897 -62.52025 30329 ft 279 kts 238°
2026-05-05 19:51 52.44639 -62.54443 30320 ft 278 kts 238°
2026-05-05 19:52 52.43380 -62.56863 30233 ft 279 kts 238°
2026-05-05 19:52 52.42129 -62.59266 30224 ft 277 kts 238°
2026-05-05 19:52 52.40877 -62.61668 30262 ft 280 kts 238°
2026-05-05 19:52 52.39606 -62.64108 30521 ft 283 kts 238°
2026-05-05 19:53 52.38338 -62.66541 30764 ft 286 kts 237°
2026-05-05 19:53 52.37036 -62.69035 31017 ft 289 kts 237°
2026-05-05 19:53 52.35723 -62.71546 31253 ft 293 kts 237°
2026-05-05 19:53 52.34356 -62.74170 31191 ft 310 kts 237°
2026-05-05 19:54 52.32918 -62.76929 31191 ft 326 kts 236°
2026-05-05 19:54 52.31418 -62.79793 31302 ft 338 kts 236°
2026-05-05 19:54 52.29856 -62.82768 31404 ft 350 kts 235°
2026-05-05 19:55 52.26610 -62.88926 31587 ft 371 kts 235°
2026-05-05 19:55 52.24910 -62.92147 31681 ft 382 kts 234°
2026-05-05 19:55 52.23150 -62.95476 31788 ft 393 kts 234°
2026-05-05 19:56 52.19484 -63.02396 31961 ft 413 kts 234°
2026-05-05 19:56 52.15693 -63.09529 32116 ft 429 kts 234°
2026-05-05 19:56 52.13723 -63.13225 32254 ft 433 kts 234°
2026-05-05 19:57 52.11749 -63.16921 32707 ft 431 kts 234°
2026-05-05 19:57 52.10447 -63.19354 32965 ft 431 kts 234°
2026-05-05 19:57 52.07846 -63.24214 33362 ft 432 kts 233°
2026-05-05 19:57 52.05846 -63.27951 33495 ft 434 kts 233°
2026-05-05 19:58 52.03887 -63.31605 33531 ft 435 kts 233°
2026-05-05 19:58 51.99927 -63.38972 33578 ft 432 kts 233°
2026-05-05 19:59 51.95971 -63.46313 33592 ft 431 kts 233°
2026-05-05 19:59 51.92070 -63.53522 33569 ft 419 kts 234°
2026-05-05 20:00 51.88229 -63.60614 33588 ft 420 kts 234°
2026-05-05 20:00 51.84360 -63.67745 33597 ft 423 kts 234°
2026-05-05 20:01 51.80467 -63.74894 33589 ft 424 kts 234°
2026-05-05 20:01 51.76566 -63.82032 33579 ft 423 kts 234°
2026-05-05 20:02 51.72707 -63.89068 33589 ft 419 kts 234°
2026-05-05 20:02 51.68859 -63.96068 33583 ft 415 kts 233°
2026-05-05 20:03 51.65033 -64.03010 33598 ft 413 kts 233°
2026-05-05 20:03 51.61227 -64.09901 33600 ft 411 kts 233°
2026-05-05 20:04 51.57425 -64.16765 33593 ft 410 kts 233°
2026-05-05 20:04 51.53633 -64.23592 33596 ft 410 kts 233°
2026-05-05 20:05 51.49832 -64.30416 33598 ft 410 kts 233°
2026-05-05 20:05 51.46022 -64.37237 33609 ft 411 kts 233°
2026-05-05 20:06 51.42197 -64.44067 33610 ft 412 kts 233°
2026-05-05 20:06 51.38371 -64.50877 33606 ft 410 kts 232°
2026-05-05 20:07 51.34579 -64.57610 33606 ft 409 kts 232°
2026-05-05 20:07 51.30777 -64.64344 33607 ft 407 kts 232°
2026-05-05 20:08 51.26983 -64.71045 33602 ft 406 kts 232°
2026-05-05 20:08 51.23199 -64.77711 33621 ft 405 kts 232°
2026-05-05 20:09 51.19410 -64.84369 33606 ft 405 kts 232°
2026-05-05 20:09 51.15611 -64.91027 33600 ft 406 kts 232°
2026-05-05 20:10 51.11823 -64.97647 33602 ft 406 kts 232°
2026-05-05 20:10 51.08012 -65.04292 33626 ft 407 kts 232°
2026-05-05 20:11 51.04189 -65.10938 33598 ft 407 kts 232°
2026-05-05 20:11 51.00358 -65.17581 33584 ft 407 kts 232°
2026-05-05 20:12 50.96522 -65.24215 33610 ft 408 kts 232°
2026-05-05 20:12 50.92676 -65.30850 33593 ft 408 kts 232°
2026-05-05 20:13 50.88832 -65.37460 33603 ft 408 kts 232°
2026-05-05 20:13 50.84990 -65.44053 33600 ft 407 kts 232°
2026-05-05 20:14 50.81146 -65.50631 33603 ft 407 kts 232°
2026-05-05 20:14 50.77304 -65.57187 33607 ft 406 kts 231°
2026-05-05 20:15 50.73456 -65.63739 33598 ft 407 kts 231°
2026-05-05 20:15 50.69624 -65.70247 33602 ft 407 kts 231°
2026-05-05 20:16 50.65768 -65.76785 33591 ft 407 kts 231°
2026-05-05 20:16 50.61909 -65.83297 33595 ft 406 kts 231°
2026-05-05 20:17 50.58057 -65.89785 33592 ft 405 kts 231°
2026-05-05 20:17 50.54207 -65.96257 33589 ft 405 kts 231°
2026-05-05 20:18 50.50997 -66.01639 33593 ft 405 kts 231°
2026-05-05 20:18 50.47138 -66.08093 33574 ft 405 kts 231°
2026-05-05 20:19 50.43279 -66.14533 33578 ft 404 kts 231°
2026-05-05 20:19 50.39453 -66.20899 33579 ft 403 kts 231°
2026-05-05 20:20 50.35613 -66.27276 33602 ft 401 kts 230°
2026-05-05 20:20 50.31785 -66.33613 33598 ft 399 kts 230°
2026-05-05 20:21 50.27973 -66.39910 33571 ft 398 kts 230°
2026-05-05 20:21 50.24169 -66.46178 33577 ft 397 kts 230°
2026-05-05 20:22 50.20365 -66.52431 33582 ft 397 kts 230°
2026-05-05 20:22 50.16561 -66.58669 33581 ft 397 kts 230°
2026-05-05 20:23 50.12740 -66.64919 33558 ft 398 kts 230°
2026-05-05 20:23 50.08936 -66.71124 33574 ft 399 kts 230°
2026-05-05 20:24 50.05099 -66.77370 33582 ft 399 kts 230°
2026-05-05 20:24 50.01251 -66.83615 33579 ft 400 kts 230°
2026-05-05 20:25 49.97397 -66.89857 33579 ft 400 kts 230°
2026-05-05 20:25 49.93535 -66.96095 33563 ft 399 kts 229°
2026-05-05 20:26 49.89679 -67.02308 33573 ft 399 kts 229°
2026-05-05 20:26 49.85831 -67.08493 33596 ft 398 kts 229°
2026-05-05 20:27 49.82016 -67.14611 33572 ft 398 kts 229°
2026-05-05 20:27 49.78166 -67.20770 33563 ft 398 kts 229°
2026-05-05 20:28 49.74315 -67.26916 33564 ft 397 kts 229°
2026-05-05 20:28 49.70469 -67.33039 33567 ft 397 kts 229°
2026-05-05 20:29 49.66612 -67.39165 33564 ft 398 kts 228°
2026-05-05 20:29 49.62747 -67.45286 33568 ft 398 kts 228°
2026-05-05 20:30 49.58878 -67.51401 33544 ft 398 kts 228°
2026-05-05 20:30 49.55023 -67.57479 33548 ft 398 kts 228°
2026-05-05 20:31 49.51146 -67.63577 33554 ft 398 kts 228°
2026-05-05 20:31 49.47266 -67.69665 33565 ft 398 kts 228°
2026-05-05 20:32 49.43381 -67.75743 33558 ft 398 kts 228°
2026-05-05 20:32 49.39501 -67.81805 33547 ft 398 kts 228°
2026-05-05 20:33 49.35620 -67.87850 33556 ft 397 kts 227°
2026-05-05 20:33 49.31769 -67.93838 33559 ft 397 kts 227°
2026-05-05 20:34 49.27893 -67.99862 33554 ft 397 kts 227°
2026-05-05 20:34 49.24003 -68.05864 33547 ft 397 kts 227°
2026-05-05 20:35 49.20116 -68.11861 33531 ft 396 kts 227°
2026-05-05 20:35 49.16235 -68.17841 33535 ft 396 kts 227°
2026-05-05 20:36 49.12333 -68.23805 33540 ft 398 kts 226°
2026-05-05 20:36 49.10324 -68.26744 33681 ft 401 kts 226°
2026-05-05 20:36 49.08293 -68.29665 33929 ft 402 kts 225°
2026-05-05 20:36 49.06275 -68.32550 34208 ft 402 kts 225°
2026-05-05 20:37 49.04238 -68.35462 34456 ft 403 kts 225°
2026-05-05 20:37 49.02186 -68.38402 34711 ft 405 kts 225°
2026-05-05 20:37 49.00122 -68.41362 34845 ft 408 kts 225°
2026-05-05 20:37 48.98045 -68.44340 35047 ft 410 kts 225°
2026-05-05 20:38 48.95969 -68.47318 35274 ft 411 kts 225°
2026-05-05 20:38 48.93883 -68.50306 35444 ft 413 kts 225°
2026-05-05 20:38 48.91781 -68.53317 35478 ft 415 kts 225°
2026-05-05 20:39 48.87577 -68.59324 35528 ft 414 kts 225°
2026-05-05 20:39 48.83395 -68.65286 35529 ft 411 kts 225°
2026-05-05 20:40 48.79230 -68.71210 35538 ft 410 kts 225°
2026-05-05 20:40 48.75062 -68.77124 35534 ft 411 kts 225°
2026-05-05 20:41 48.70910 -68.83003 35518 ft 411 kts 225°
2026-05-05 20:41 48.66733 -68.88901 35514 ft 410 kts 225°
2026-05-05 20:42 48.62555 -68.94787 35525 ft 410 kts 225°
2026-05-05 20:42 48.58385 -69.00649 35528 ft 410 kts 225°
2026-05-05 20:43 48.54198 -69.06520 35526 ft 411 kts 225°
2026-05-05 20:43 48.50005 -69.12386 35534 ft 411 kts 225°
2026-05-05 20:44 48.45806 -69.18246 35526 ft 412 kts 225°
2026-05-05 20:44 48.41595 -69.24110 35530 ft 412 kts 225°
2026-05-05 20:45 48.35295 -69.32856 35534 ft 413 kts 225°
2026-05-05 20:45 48.31058 -69.38720 35521 ft 413 kts 225°
2026-05-05 20:46 48.26823 -69.44567 35557 ft 414 kts 225°
2026-05-05 20:46 48.22581 -69.50412 35535 ft 413 kts 225°
2026-05-05 20:47 48.18347 -69.56231 35550 ft 412 kts 225°
2026-05-05 20:47 48.14121 -69.62024 35551 ft 412 kts 225°
2026-05-05 20:48 48.09923 -69.67767 35545 ft 410 kts 225°
2026-05-05 20:48 48.05708 -69.73519 35550 ft 410 kts 225°
2026-05-05 20:49 48.01500 -69.79249 35549 ft 409 kts 225°
2026-05-05 20:49 47.97290 -69.84971 35543 ft 409 kts 225°
2026-05-05 20:50 47.93074 -69.90684 35543 ft 408 kts 225°
2026-05-05 20:50 47.88863 -69.96378 35560 ft 409 kts 225°
2026-05-05 20:51 47.84639 -70.02078 35551 ft 410 kts 225°
2026-05-05 20:51 47.80405 -70.07779 35554 ft 411 kts 225°
2026-05-05 20:52 47.76157 -70.13484 35538 ft 412 kts 225°
2026-05-05 20:52 47.71896 -70.19192 35554 ft 413 kts 225°
2026-05-05 20:53 47.67655 -70.24863 35548 ft 414 kts 225°
2026-05-05 20:53 47.63375 -70.30573 35568 ft 413 kts 225°
2026-05-05 20:54 47.59095 -70.36270 35548 ft 413 kts 225°
2026-05-05 20:54 47.54816 -70.41954 35588 ft 413 kts 225°
2026-05-05 20:55 47.50525 -70.47640 35579 ft 414 kts 225°
2026-05-05 20:55 47.46426 -70.53589 35582 ft 413 kts 228°
2026-05-05 20:56 47.42386 -70.59620 35587 ft 413 kts 228°
2026-05-05 20:56 47.38336 -70.65649 35594 ft 413 kts 228°
2026-05-05 20:57 47.34287 -70.71650 35591 ft 413 kts 228°
2026-05-05 20:57 47.30252 -70.77615 35597 ft 413 kts 227°
2026-05-05 20:58 47.26186 -70.83615 35618 ft 414 kts 228°
2026-05-05 20:58 47.22108 -70.89618 35605 ft 414 kts 228°
2026-05-05 20:59 47.18037 -70.95591 35624 ft 413 kts 228°
2026-05-05 20:59 47.13963 -71.01568 35620 ft 414 kts 228°
2026-05-05 21:00 47.09877 -71.07541 35612 ft 414 kts 227°
2026-05-05 21:00 47.05675 -71.13331 35613 ft 414 kts 225°
2026-05-05 21:01 47.01389 -71.18978 35611 ft 414 kts 225°
2026-05-05 21:01 46.97122 -71.24631 35622 ft 413 kts 225°
2026-05-05 21:02 46.92869 -71.30294 35614 ft 413 kts 226°
2026-05-05 21:02 46.88643 -71.35917 35552 ft 413 kts 225°
2026-05-05 21:03 46.84388 -71.41567 35554 ft 413 kts 225°
2026-05-05 21:03 46.80135 -71.47198 35557 ft 413 kts 226°
2026-05-05 21:04 46.76207 -71.53244 35566 ft 409 kts 231°
2026-05-05 21:04 46.72563 -71.59577 35533 ft 407 kts 237°
2026-05-05 21:05 46.70066 -71.65385 35569 ft 407 kts 240°
2026-05-05 21:05 46.67274 -71.74066 35584 ft 408 kts 247°
2026-05-05 21:06 46.65518 -71.80509 35576 ft 409 kts 248°
2026-05-05 21:06 46.63420 -71.88168 35589 ft 410 kts 247°
2026-05-05 21:07 46.61284 -71.95873 35583 ft 411 kts 247°
2026-05-05 21:07 46.59141 -72.03559 35579 ft 410 kts 247°
2026-05-05 21:08 46.57000 -72.11216 35571 ft 408 kts 247°
2026-05-05 21:08 46.54856 -72.18854 35563 ft 408 kts 247°
2026-05-05 21:09 46.52705 -72.26476 35566 ft 408 kts 247°
2026-05-05 21:09 46.50547 -72.34096 35558 ft 408 kts 247°
2026-05-05 21:10 46.48392 -72.41690 35559 ft 408 kts 247°
2026-05-05 21:10 46.46224 -72.49310 35569 ft 408 kts 247°
2026-05-05 21:11 46.44053 -72.56904 35551 ft 407 kts 247°
2026-05-05 21:11 46.41877 -72.64481 35555 ft 407 kts 247°
2026-05-05 21:12 46.39712 -72.72003 35560 ft 407 kts 247°
2026-05-05 21:12 46.37527 -72.79575 35567 ft 408 kts 247°
2026-05-05 21:13 46.35332 -72.87163 35574 ft 409 kts 247°
2026-05-05 21:13 46.33142 -72.94789 35592 ft 410 kts 247°
2026-05-05 21:14 46.30957 -73.02390 35558 ft 406 kts 248°
2026-05-05 21:14 46.28792 -73.09900 35576 ft 403 kts 247°
2026-05-05 21:15 46.26630 -73.17373 35562 ft 402 kts 247°
2026-05-05 21:15 46.24474 -73.24789 35565 ft 399 kts 247°
2026-05-05 21:16 46.22331 -73.32116 35574 ft 398 kts 247°
2026-05-05 21:16 46.20167 -73.39490 35580 ft 399 kts 247°
2026-05-05 21:17 46.17987 -73.46868 35578 ft 401 kts 247°
2026-05-05 21:17 46.15790 -73.54285 35571 ft 402 kts 247°
2026-05-05 21:18 46.13584 -73.61718 35583 ft 404 kts 247°
2026-05-05 21:18 46.11362 -73.69180 35583 ft 405 kts 247°
2026-05-05 21:19 46.09132 -73.76650 35585 ft 406 kts 247°
2026-05-05 21:19 46.06913 -73.84063 35583 ft 406 kts 247°
2026-05-05 21:20 46.04383 -73.91331 35586 ft 406 kts 241°
2026-05-05 21:20 46.01150 -73.98012 35591 ft 408 kts 236°
2026-05-05 21:21 45.97680 -74.04452 35582 ft 406 kts 236°
2026-05-05 21:21 45.94237 -74.10856 35590 ft 405 kts 236°
2026-05-05 21:22 45.90798 -74.17262 35580 ft 404 kts 236°
2026-05-05 21:22 45.87366 -74.23646 35583 ft 403 kts 236°
2026-05-05 21:23 45.83953 -74.29986 35581 ft 404 kts 236°
2026-05-05 21:23 45.80509 -74.36357 35597 ft 405 kts 236°
2026-05-05 21:24 45.77030 -74.42752 35596 ft 407 kts 236°
2026-05-05 21:24 45.73536 -74.49156 35592 ft 409 kts 236°
2026-05-05 21:25 45.70034 -74.55563 35631 ft 408 kts 236°
2026-05-05 21:25 45.66560 -74.61901 35601 ft 406 kts 235°
2026-05-05 21:26 45.63083 -74.68207 35594 ft 402 kts 235°
2026-05-05 21:26 45.59638 -74.74472 35606 ft 400 kts 235°
2026-05-05 21:27 45.56207 -74.80708 35609 ft 398 kts 235°
2026-05-05 21:27 45.52779 -74.86924 35603 ft 399 kts 236°
2026-05-05 21:28 45.49332 -74.93163 35620 ft 402 kts 235°
2026-05-05 21:28 45.45916 -74.99396 35613 ft 403 kts 239°
2026-05-05 21:29 45.43334 -75.06450 35622 ft 401 kts 248°
2026-05-05 21:29 45.41629 -75.13947 35632 ft 401 kts 257°
2026-05-05 21:30 45.40507 -75.21771 35627 ft 400 kts 258°
2026-05-05 21:30 45.39412 -75.29477 35641 ft 399 kts 258°
2026-05-05 21:31 45.38294 -75.37183 35649 ft 398 kts 257°
2026-05-05 21:31 45.37160 -75.44892 35653 ft 398 kts 257°
2026-05-05 21:32 45.36017 -75.52599 35646 ft 397 kts 257°
2026-05-05 21:32 45.34875 -75.60263 35654 ft 395 kts 257°
2026-05-05 21:33 45.33736 -75.67873 35655 ft 393 kts 257°
2026-05-05 21:33 45.32596 -75.75452 35654 ft 391 kts 257°
2026-05-05 21:34 45.31463 -75.82956 35661 ft 391 kts 257°
2026-05-05 21:34 45.30317 -75.90507 35662 ft 391 kts 257°
2026-05-05 21:35 45.29163 -75.98077 35692 ft 392 kts 257°
2026-05-05 21:35 45.28003 -76.05655 35687 ft 392 kts 257°
2026-05-05 21:36 45.26842 -76.13215 35679 ft 392 kts 257°
2026-05-05 21:36 45.25672 -76.20778 35694 ft 392 kts 256°
2026-05-05 21:37 45.24089 -76.28172 35699 ft 392 kts 248°
2026-05-05 21:37 45.21905 -76.35254 35704 ft 392 kts 247°
2026-05-05 21:38 45.19716 -76.42300 35722 ft 393 kts 247°
2026-05-05 21:38 45.17549 -76.49411 35712 ft 393 kts 248°
2026-05-05 21:39 45.15394 -76.56546 35700 ft 394 kts 248°
2026-05-05 21:39 45.13238 -76.63691 35714 ft 394 kts 248°
2026-05-05 21:40 45.11075 -76.70840 35728 ft 396 kts 248°
2026-05-05 21:40 45.08901 -76.78008 35714 ft 396 kts 248°
2026-05-05 21:41 45.06721 -76.85169 35718 ft 396 kts 248°
2026-05-05 21:41 45.04552 -76.92280 35739 ft 396 kts 248°
2026-05-05 21:42 45.02388 -76.99348 35716 ft 395 kts 248°
2026-05-05 21:42 45.00248 -77.06324 35742 ft 395 kts 248°
2026-05-05 21:43 44.98094 -77.13325 35761 ft 396 kts 248°
2026-05-05 21:43 44.95893 -77.20461 35747 ft 396 kts 248°
2026-05-05 21:44 44.94144 -77.26115 35740 ft 397 kts 248°